FW4143 Weather Reports


time (UTC)temp
C
wind
direction
speed
KPH
gust
KPH
rain 1hr
cm
rain 24hr
cm
rain mn
cm
humidity
%
barometer
mb
20260904204204 33 58 3.2 12.9 0.00 0.03 0.03 28 1013.2
20260904204104 33 59 3.2 12.9 0.00 0.03 0.03 28 1013.2
20260904204004 33 62 3.2 11.3 0.00 0.03 0.03 28 1013.3
20260904203904 33 65 3.2 8.0 0.00 0.03 0.03 28 1013.3
20260904203804 33 65 3.2 8.0 0.00 0.03 0.03 28 1013.2
20260904203704 33 65 3.2 8.0 0.00 0.03 0.03 28 1013.3
20260904203604 33 65 3.2 8.0 0.00 0.03 0.03 28 1013.2
20260904203504 33 61 4.8 11.3 0.00 0.03 0.03 28 1013.3
20260904203404 33 57 4.8 11.3 0.00 0.03 0.03 27 1013.3
20260904203304 33 56 4.8 12.9 0.00 0.03 0.03 27 1013.4
20260904203225 33 57 4.8 12.9 0.00 0.03 0.03 27 1013.4
20260904203104 33 58 4.8 12.9 0.00 0.03 0.03 27 1013.4
20260904203025 33 58 6.4 12.9 0.00 0.03 0.03 27 1013.4
20260904202904 33 58 4.8 12.9 0.00 0.03 0.03 27 1013.4
20260904202804 33 57 4.8 12.9 0.00 0.03 0.03 26 1013.5
20260904202704 33 57 4.8 12.9 0.00 0.03 0.03 26 1013.4
20260904202604 33 57 4.8 12.9 0.00 0.03 0.03 26 1013.4
20260904202525 32 58 4.8 12.9 0.00 0.03 0.03 26 1013.4
20260904202404 32 63 4.8 12.9 0.00 0.03 0.03 26 1013.4
20260904202306 32 64 4.8 9.7 0.00 0.03 0.03 26 1013.4
20260904202204 32 62 4.8 9.7 0.00 0.03 0.03 26 1013.5
20260904202125 32 61 4.8 9.7 0.00 0.03 0.03 26 1013.5
20260904202025 32 59 4.8 9.7 0.00 0.03 0.03 26 1013.5
20260904201904 32 63 4.8 9.7 0.00 0.03 0.03 26 1013.5
20260904201804 32 67 4.8 12.9 0.00 0.03 0.03 26 1013.6
20260904201704 32 67 6.4 12.9 0.00 0.03 0.03 27 1013.6
20260904201604 32 67 6.4 12.9 0.00 0.03 0.03 26 1013.7
20260904201504 32 69 6.4 12.9 0.00 0.03 0.03 27 1013.7
20260904201404 32 71 4.8 12.9 0.00 0.03 0.03 27 1013.7
20260904201304 32 73 4.8 12.9 0.00 0.03 0.03 27 1013.7
20260904201204 32 76 4.8 12.9 0.00 0.03 0.03 27 1013.7
20260904201104 32 77 6.4 12.9 0.00 0.03 0.03 27 1013.8
20260904201004 32 77 4.8 12.9 0.00 0.03 0.03 27 1013.8
20260904200904 32 72 4.8 12.9 0.00 0.03 0.03 28 1013.7
20260904200804 32 68 4.8 12.9 0.00 0.03 0.03 27 1013.8
20260904200704 32 69 4.8 12.9 0.00 0.03 0.03 27 1013.8
20260904200604 32 70 4.8 12.9 0.00 0.03 0.03 27 1013.8
20260904200504 32 69 4.8 12.9 0.00 0.03 0.03 28 1013.8
20260904200404 32 69 4.8 12.9 0.00 0.03 0.03 27 1013.8
20260904200304 32 67 4.8 12.9 0.00 0.03 0.03 27 1013.8
20260904200204 32 65 4.8 12.9 0.00 0.03 0.03 27 1013.8
20260904200104 32 61 4.8 12.9 0.00 0.03 0.03 26 1013.8
20260904200025 32 59 4.8 12.9 0.00 0.03 0.03 25 1013.8
20260904195906 32 62 4.8 12.9 0.00 0.03 0.03 24 1013.9
20260904195804 32 62 4.8 9.7 0.00 0.03 0.03 24 1013.8
20260904195725 32 61 4.8 9.7 0.00 0.03 0.03 23 1013.9
20260904195604 32 58 4.8 9.7 0.00 0.03 0.03 23 1013.9
20260904195504 32 55 4.8 9.7 0.00 0.03 0.03 23 1013.9
20260904195404 32 52 6.4 9.7 0.00 0.03 0.03 21 1013.9
20260904195306 32 51 6.4 11.3 0.00 0.03 0.03 21 1013.9
20260904195204 32 51 6.4 11.3 0.00 0.03 0.03 21 1013.9
20260904195125 32 51 4.8 11.3 0.00 0.03 0.03 21 1014.0
20260904195025 32 52 6.4 11.3 0.00 0.03 0.03 21 1013.9
20260904194904 32 52 6.4 11.3 0.00 0.03 0.03 20 1013.9
20260904194804 32 53 6.4 11.3 0.00 0.03 0.03 20 1014.0
20260904194725 32 53 6.4 11.3 0.00 0.03 0.03 20 1014.0
20260904194604 32 54 4.8 11.3 0.00 0.03 0.03 20 1014.0
20260904194504 32 56 4.8 11.3 0.00 0.03 0.03 20 1014.0
20260904194404 32 55 4.8 12.9 0.00 0.03 0.03 20 1014.0
20260904194304 32 53 6.4 12.9 0.00 0.03 0.03 19 1014.0
20260904194204 32 54 6.4 12.9 0.00 0.03 0.03 20 1014.0
20260904194125 32 55 6.4 12.9 0.00 0.03 0.03 20 1014.0
20260904194004 32 55 6.4 12.9 0.00 0.03 0.03 19 1014.0
20260904193904 32 56 6.4 12.9 0.00 0.03 0.03 19 1014.0
20260904193804 32 57 6.4 12.9 0.00 0.03 0.03 18 1014.0
20260904193704 32 57 6.4 12.9 0.00 0.03 0.03 18 1014.0
20260904193604 32 55 6.4 12.9 0.00 0.03 0.03 18 1014.0
20260904193525 32 54 8.0 12.9 0.00 0.03 0.03 18 1014.1
20260904193425 32 54 8.0 14.5 0.00 0.03 0.03 19 1014.1
20260904193304 31 57 8.0 14.5 0.00 0.03 0.03 18 1014.1
20260904193204 31 56 8.0 14.5 0.00 0.03 0.03 18 1014.1
20260904193104 31 55 8.0 14.5 0.00 0.03 0.03 18 1014.1
20260904193025 31 56 8.0 14.5 0.00 0.03 0.03 18 1014.1
20260904192925 31 56 8.0 14.5 0.00 0.03 0.03 18 1014.1
20260904192804 31 52 8.0 17.7 0.00 0.03 0.03 18 1014.2
20260904192704 31 51 8.0 17.7 0.00 0.03 0.03 17 1014.1
20260904192604 31 52 9.7 17.7 0.00 0.03 0.03 17 1014.2
20260904192504 31 52 9.7 17.7 0.00 0.03 0.03 16 1014.2
20260904192404 31 51 9.7 17.7 0.00 0.03 0.03 16 1014.2
20260904192306 31 51 9.7 17.7 0.00 0.03 0.03 16 1014.2
20260904192204 31 50 9.7 17.7 0.00 0.03 0.03 15 1014.2
20260904192104 31 51 9.7 17.7 0.00 0.03 0.03 16 1014.2
20260904192004 31 51 9.7 17.7 0.00 0.03 0.03 16 1014.2
20260904191925 31 52 9.7 17.7 0.00 0.03 0.03 15 1014.2
20260904191804 31 55 9.7 17.7 0.00 0.03 0.03 14 1014.2
20260904191704 31 54 9.7 17.7 0.00 0.03 0.03 14 1014.2
20260904191604 31 53 8.0 17.7 0.00 0.03 0.03 14 1014.2
20260904191504 31 53 8.0 17.7 0.00 0.03 0.03 13 1014.2
20260904191425 31 54 8.0 17.7 0.00 0.03 0.03 12 1014.3
20260904191304 31 55 8.0 17.7 0.00 0.03 0.03 11 1014.2
20260904191204 31 56 8.0 17.7 0.00 0.03 0.03 10 1014.2
20260904191104 31 55 8.0 14.5 0.00 0.03 0.03 9 1014.2
20260904191004 31 55 8.0 14.5 0.00 0.03 0.03 10 1014.3
20260904190905 31 53 8.0 14.5 0.00 0.03 0.03 10 1014.3
20260904190804 31 51 8.0 14.5 0.00 0.03 0.03 10 1014.3
20260904190704 31 52 8.0 14.5 0.00 0.03 0.03 9 1014.4
20260904190604 31 54 8.0 14.5 0.00 0.03 0.03 9 1014.4
20260904190504 31 54 6.4 14.5 0.00 0.03 0.03 10 1014.4
20260904190404 31 53 8.0 14.5 0.00 0.03 0.03 11 1014.4
20260904190304 31 51 8.0 16.1 0.00 0.03 0.03 11 1014.5
20260904190204 31 52 8.0 16.1 0.00 0.03 0.03 11 1014.5
20260904190104 31 50 8.0 16.1 0.00 0.03 0.03 10 1014.5
20260904190004 31 48 8.0 16.1 0.00 0.03 0.03 9 1014.5
20260904185925 31 47 8.0 16.1 0.00 0.03 0.03 9 1014.5
20260904185804 31 51 8.0 16.1 0.00 0.03 0.03 9 1014.5
20260904185725 31 51 8.0 16.1 0.00 0.03 0.03 9 1014.5
20260904185604 31 50 9.7 16.1 0.00 0.03 0.03 9 1014.5
20260904185504 31 49 9.7 17.7 0.00 0.03 0.03 9 1014.6
20260904185404 31 50 9.7 17.7 0.00 0.03 0.03 9 1014.6
20260904185306 31 50 9.7 17.7 0.00 0.03 0.03 9 1014.6
20260904185225 31 50 9.7 17.7 0.00 0.03 0.03 8 1014.7
20260904185104 31 49 9.7 17.7 0.00 0.03 0.03 8 1014.7
20260904185025 31 48 9.7 17.7 0.00 0.03 0.03 8 1014.8
20260904184925 31 49 9.7 17.7 0.00 0.03 0.03 7 1014.8
20260904184825 31 48 9.7 19.3 0.00 0.03 0.03 7 1014.7
20260904184704 31 47 11.3 22.5 0.00 0.03 0.03 8 1014.8
20260904184625 31 48 9.7 22.5 0.00 0.03 0.03 8 1014.8
20260904184504 31 50 9.7 22.5 0.00 0.03 0.03 7 1014.8
20260904184404 31 49 9.7 22.5 0.00 0.03 0.03 7 1014.8
20260904184304 31 50 9.7 22.5 0.00 0.03 0.03 6 1014.9
20260904184225 31 50 8.0 22.5 0.00 0.03 0.03 6 1014.9
20260904184104 31 51 8.0 22.5 0.00 0.03 0.03 7 1014.9
20260904184025 31 51 8.0 22.5 0.00 0.03 0.03 7 1014.9
20260904183904 31 51 8.0 22.5 0.00 0.03 0.03 7 1014.9
20260904183804 31 50 6.4 17.7 0.00 0.03 0.03 6 1014.9
20260904183704 31 50 6.4 12.9 0.00 0.03 0.03 4 1014.9
20260904183625 31 48 8.0 16.1 0.00 0.03 0.03 4 1014.9
20260904183504 31 44 8.0 16.1 0.00 0.03 0.03 5 1014.9
20260904183404 31 41 8.0 16.1 0.00 0.03 0.03 5 1014.9
20260904183304 31 39 8.0 16.1 0.00 0.03 0.03 6 1014.9
20260904183204 31 40 8.0 16.1 0.00 0.03 0.03 7 1014.9
20260904183104 31 40 8.0 16.1 0.00 0.03 0.03 8 1014.9
20260904183004 31 39 8.0 16.1 0.00 0.03 0.03 6 1014.9
20260904182904 31 39 8.0 16.1 0.00 0.03 0.03 6 1014.9
20260904182804 31 37 8.0 16.1 0.00 0.03 0.03 6 1014.9
20260904182704 31 36 8.0 16.1 0.00 0.03 0.03 5 1015.0
20260904182604 31 37 8.0 16.1 0.00 0.03 0.03 5 1015.0
20260904182504 31 38 8.0 16.1 0.00 0.03 0.03 5 1015.0
20260904182404 31 39 8.0 17.7 0.00 0.03 0.03 4 1014.9
20260904182306 31 40 6.4 17.7 0.00 0.03 0.03 4 1015.0
20260904182225 31 40 8.0 17.7 0.00 0.03 0.03 3 1015.0
20260904182104 31 39 8.0 17.7 0.00 0.03 0.03 3 1015.0
20260904182004 31 42 8.0 17.7 0.00 0.03 0.03 4 1015.0
20260904181925 31 42 8.0 17.7 0.00 0.03 0.03 4 1015.0
20260904181804 31 43 8.0 17.7 0.00 0.03 0.03 5 1015.0
20260904181704 31 42 8.0 17.7 0.00 0.03 0.03 5 1015.0
20260904181625 31 42 8.0 17.7 0.00 0.03 0.03 4 1015.0
20260904181504 31 43 8.0 17.7 0.00 0.03 0.03 4 1015.0
20260904181404 30 43 8.0 14.5 0.00 0.03 0.03 1 1015.0
20260904181304 30 44 8.0 14.5 0.00 0.03 0.03 1 1015.0
20260904181225 30 46 8.0 14.5 0.00 0.03 0.03 1 1015.0
20260904181125 30 47 8.0 14.5 0.00 0.03 0.03 1 1015.0
20260904181025 30 47 8.0 14.5 0.00 0.03 0.03 1 1015.0
20260904180904 30 48 8.0 14.5 0.00 0.03 0.03 1 1015.0
20260904180825 30 49 8.0 14.5 0.00 0.03 0.03 1 1015.0
20260904180704 30 52 8.0 12.9 0.00 0.03 0.03 1 1015.0
20260904180604 30 52 8.0 14.5 0.00 0.03 0.03 1 1015.1
20260904180504 30 54 8.0 14.5 0.00 0.03 0.03 1 1015.1
20260904180404 30 54 8.0 14.5 0.00 0.03 0.03 1 1015.1
20260904180304 30 54 8.0 14.5 0.00 0.03 0.03 1 1015.1
20260904180204 30 54 8.0 14.5 0.00 0.03 0.03 1 1015.1
20260904180104 30 54 8.0 17.7 0.00 0.03 0.03 1 1015.1
20260904180004 30 54 8.0 17.7 0.00 0.03 0.03 1 1015.0
20260904175904 30 55 8.0 17.7 0.00 0.03 0.03 1 1015.0
20260904175804 30 55 8.0 17.7 0.00 0.03 0.03 1 1015.1
20260904175704 30 56 6.4 17.7 0.00 0.03 0.03 1 1015.2
20260904175604 30 56 6.4 17.7 0.00 0.03 0.03 1 1015.2
20260904175504 30 54 6.4 17.7 0.00 0.03 0.03 1 1015.2
20260904175425 30 55 8.0 17.7 0.00 0.03 0.03 1 1015.2
20260904175305 30 59 6.4 17.7 0.00 0.03 0.03 1 1015.2
20260904175225 30 59 8.0 17.7 0.00 0.03 0.03 1 1015.2
20260904175104 30 58 6.4 16.1 0.00 0.03 0.03 1 1015.1
20260904175004 30 57 8.0 16.1 0.00 0.03 0.03 1 1015.2
20260904174904 30 55 8.0 16.1 0.00 0.03 0.03 1 1015.2
20260904174804 30 55 8.0 16.1 0.00 0.03 0.03 1 1015.2
20260904174725 30 54 8.0 20.9 0.00 0.03 0.03 1 1015.2
20260904174604 30 54 8.0 20.9 0.00 0.03 0.03 1 1015.2
20260904174525 30 55 8.0 20.9 0.00 0.03 0.03 1 1015.2
20260904174404 30 52 9.7 20.9 0.00 0.03 0.03 1 1015.2
20260904174304 30 50 9.7 20.9 0.00 0.03 0.03 1 1015.2
20260904174204 30 50 8.0 20.9 0.00 0.03 0.03 1 1015.2
20260904174104 30 48 8.0 20.9 0.00 0.03 0.03 1 1015.2
20260904174004 30 49 8.0 20.9 0.00 0.03 0.03 1 1015.3
20260904173927 30 48 8.0 20.9 0.00 0.03 0.03 1 1015.2
20260904173804 30 47 6.4 20.9 0.00 0.03 0.03 1 1015.3
20260904173704 30 46 8.0 16.1 0.00 0.03 0.03 1 1015.3
20260904173604 30 45 8.0 17.7 0.00 0.03 0.03 1 1015.3
20260904173525 30 46 8.0 17.7 0.00 0.03 0.03 1 1015.3
20260904173404 30 47 8.0 17.7 0.00 0.03 0.03 1 1015.3
20260904173304 30 47 6.4 17.7 0.00 0.03 0.03 1 1015.3
20260904173204 30 46 6.4 17.7 0.00 0.03 0.03 1 1015.3
20260904173104 30 46 6.4 17.7 0.00 0.03 0.03 1 1015.3
20260904173004 30 47 6.4 17.7 0.00 0.03 0.03 1 1015.3
20260904172904 30 47 8.0 17.7 0.00 0.03 0.03 1 1015.3
20260904172804 30 45 8.0 17.7 0.00 0.03 0.03 1 1015.3
20260904172704 30 46 6.4 17.7 0.00 0.03 0.03 1 1015.3
20260904172604 30 46 6.4 14.5 0.00 0.03 0.03 1 1015.4
20260904172504 30 40 6.4 14.5 0.00 0.03 0.03 1 1015.3
20260904172425 30 38 6.4 14.5 0.00 0.03 0.03 1 1015.3
20260904172325 30 38 8.0 24.1 0.00 0.03 0.03 1 1015.4
20260904172225 30 39 8.0 24.1 0.00 0.03 0.03 1 1015.4
20260904172104 30 41 8.0 24.1 0.00 0.03 0.03 1 1015.4
20260904172004 30 40 8.0 24.1 0.00 0.03 0.03 1 1015.4
20260904171904 30 38 6.4 24.1 0.00 0.03 0.03 1 1015.4
20260904171804 30 36 6.4 24.1 0.00 0.03 0.03 1 1015.4
20260904171704 30 37 6.4 24.1 0.00 0.03 0.03 1 1015.5
20260904171604 30 37 6.4 24.1 0.00 0.03 0.03 1 1015.4
20260904171504 30 38 6.4 24.1 0.00 0.03 0.03 1 1015.5
20260904171404 31 34 6.4 24.1 0.00 0.03 0.03 1 1015.5
20260904171304 31 35 4.8 14.5 0.00 0.03 0.03 1 1015.5
20260904171204 31 30 6.4 12.9 0.00 0.03 0.03 1 1015.5
20260904171104 31 29 6.4 12.9 0.00 0.03 0.03 1 1015.5
20260904171004 31 30 6.4 12.9 0.00 0.03 0.03 1 1015.4
20260904170904 31 33 6.4 12.9 0.00 0.03 0.03 1 1015.4
20260904170804 30 31 6.4 12.9 0.00 0.03 0.03 1 1015.5
20260904170704 30 26 4.8 12.9 0.00 0.03 0.03 1 1015.5
20260904170604 30 18 4.8 12.9 0.00 0.03 0.03 1 1015.5
20260904170525 30 13 4.8 12.9 0.00 0.03 0.03 1 1015.5
20260904170404 30 18 4.8 12.9 0.00 0.03 0.03 1 1015.5
20260904170304 30 8 4.8 12.9 0.00 0.03 0.03 2 1015.6
20260904170204 30 8 4.8 11.3 0.00 0.03 0.03 3 1015.5
20260904170125 30 6 4.8 14.5 0.00 0.03 0.03 3 1015.5
20260904170004 30 1 4.8 14.5 0.00 0.03 0.03 3 1015.5
20260904165904 30 356 4.8 14.5 0.00 0.03 0.03 2 1015.5
20260904165804 30 6 4.8 14.5 0.00 0.03 0.03 4 1015.5
20260904165704 30 13 4.8 14.5 0.00 0.03 0.03 4 1015.6
20260904165625 30 17 4.8 14.5 0.00 0.03 0.03 4 1015.6
20260904165504 30 25 4.8 14.5 0.00 0.03 0.03 3 1015.6
20260904165425 30 27 4.8 14.5 0.00 0.03 0.03 3 1015.6
20260904165325 30 31 4.8 14.5 0.00 0.03 0.03 4 1015.6
20260904165204 30 37 4.8 14.5 0.00 0.03 0.03 3 1015.6
20260904165104 30 40 4.8 12.9 0.00 0.03 0.03 3 1015.6
20260904165004 30 41 6.4 12.9 0.00 0.03 0.03 4 1015.6
20260904164904 30 45 6.4 12.9 0.00 0.03 0.03 4 1015.6
20260904164804 30 49 6.4 12.9 0.00 0.03 0.03 4 1015.6
20260904164704 30 51 6.4 12.9 0.00 0.03 0.03 4 1015.6
20260904164625 30 53 6.4 12.9 0.00 0.03 0.03 4 1015.6
20260904164525 30 55 6.4 12.9 0.00 0.03 0.03 3 1015.6
20260904164425 30 58 6.4 12.9 0.00 0.03 0.03 1 1015.6
20260904164304 30 61 6.4 12.9 0.00 0.03 0.03 1 1015.5
20260904164204 30 62 6.4 12.9 0.00 0.03 0.03 1 1015.6
20260904164104 30 61 6.4 12.9 0.00 0.03 0.03 1 1015.7
20260904164004 30 59 6.4 12.9 0.00 0.03 0.03 1 1015.7
20260904163925 30 58 6.4 12.9 0.00 0.03 0.03 1 1015.6
20260904163804 30 60 6.4 12.9 0.00 0.03 0.03 1 1015.6
20260904163704 30 59 6.4 12.9 0.00 0.03 0.03 1 1015.6
20260904163604 30 58 6.4 12.9 0.00 0.03 0.03 1 1015.6
20260904163504 30 59 8.0 12.9 0.00 0.03 0.03 1 1015.7
20260904163404 30 57 8.0 12.9 0.00 0.03 0.03 1 1015.7
20260904163304 30 54 8.0 16.1 0.00 0.03 0.03 1 1015.7
20260904163204 30 52 8.0 16.1 0.00 0.03 0.03 1 1015.6
20260904163104 30 52 8.0 16.1 0.00 0.03 0.03 1 1015.6
20260904163025 30 52 8.0 16.1 0.00 0.03 0.03 1 1015.6
20260904162925 30 54 8.0 16.1 0.00 0.03 0.03 1 1015.6
20260904162825 30 51 8.0 16.1 0.00 0.03 0.03 1 1015.6
20260904162704 30 49 8.0 16.1 0.00 0.03 0.03 1 1015.5
20260904162604 30 49 6.4 16.1 0.00 0.03 0.03 1 1015.5
20260904162525 30 46 6.4 16.1 0.00 0.03 0.03 1 1015.5
20260904162404 30 42 6.4 16.1 0.00 0.03 0.03 1 1015.6
20260904162306 30 42 4.8 16.1 0.00 0.03 0.03 1 1015.5
20260904162204 30 43 4.8 16.1 0.00 0.03 0.03 1 1015.5
20260904162104 30 44 4.8 16.1 0.00 0.03 0.03 1 1015.5
20260904162004 30 44 4.8 12.9 0.00 0.03 0.03 1 1015.5
20260904161925 30 43 4.8 16.1 0.00 0.03 0.03 1 1015.5
20260904161804 30 40 6.4 16.1 0.00 0.03 0.03 1 1015.5
20260904161704 30 37 6.4 16.1 0.00 0.03 0.03 1 1015.5
20260904161604 30 36 6.4 16.1 0.00 0.03 0.03 1 1015.5
20260904161504 30 39 6.4 16.1 0.00 0.03 0.03 1 1015.4
20260904161404 30 44 6.4 17.7 0.00 0.03 0.03 1 1015.4
20260904161325 30 42 8.0 17.7 0.00 0.03 0.03 1 1015.4
20260904161203 30 42 8.0 20.9 0.00 0.03 0.03 1 1015.4
20260904161104 30 41 8.0 20.9 0.00 0.03 0.03 1 1015.3
20260904161004 30 43 8.0 20.9 0.00 0.03 0.03 1 1015.4
20260904160904 30 44 8.0 20.9 0.00 0.03 0.03 1 1015.4
20260904160804 30 44 8.0 20.9 0.00 0.03 0.03 1 1015.4
20260904160704 30 44 8.0 20.9 0.00 0.03 0.03 1 1015.4
20260904160625 30 45 8.0 20.9 0.00 0.03 0.03 1 1015.4
20260904160504 30 43 8.0 20.9 0.00 0.03 0.03 1 1015.4
20260904160404 30 40 8.0 20.9 0.00 0.03 0.03 1 1015.3
20260904160304 30 40 8.0 20.9 0.00 0.03 0.03 1 1015.3
20260904160204 30 40 6.4 20.9 0.00 0.03 0.03 1 1015.3
20260904160103 30 43 8.0 19.3 0.00 0.03 0.03 1 1015.3
20260904160004 30 43 8.0 19.3 0.00 0.03 0.03 1 1015.3
20260904155904 30 42 8.0 19.3 0.00 0.03 0.03 1 1015.3
20260904155804 30 45 8.0 19.3 0.00 0.03 0.03 1 1015.3
20260904155704 30 47 8.0 19.3 0.00 0.03 0.03 1 1015.3
20260904155606 30 47 8.0 19.3 0.00 0.03 0.03 1 1015.3
20260904155504 30 49 8.0 16.1 0.00 0.03 0.03 1 1015.3
20260904155403 30 49 8.0 16.1 0.00 0.03 0.03 1 1015.3
20260904155306 30 51 8.0 16.1 0.00 0.03 0.03 1 1015.3
20260904155204 30 50 8.0 16.1 0.00 0.03 0.03 1 1015.3
20260904155104 30 50 8.0 16.1 0.00 0.03 0.03 1 1015.2
20260904155004 30 50 8.0 16.1 0.00 0.03 0.03 1 1015.2
20260904154904 30 48 8.0 16.1 0.00 0.03 0.03 1 1015.2
20260904154825 30 47 8.0 16.1 0.00 0.03 0.03 1 1015.2
20260904154704 30 48 8.0 16.1 0.00 0.03 0.03 1 1015.2
20260904154604 30 47 8.0 16.1 0.00 0.03 0.03 1 1015.3
20260904154525 30 49 8.0 16.1 0.00 0.03 0.03 1 1015.2
20260904154404 30 50 8.0 16.1 0.00 0.03 0.03 1 1015.3
20260904154304 30 48 8.0 16.1 0.00 0.03 0.03 1 1015.3
20260904154204 30 51 8.0 16.1 0.00 0.03 0.03 1 1015.3
20260904154125 30 49 8.0 17.7 0.00 0.03 0.03 1 1015.2
20260904154004 30 47 8.0 17.7 0.00 0.03 0.03 1 1015.2
20260904153904 30 47 8.0 17.7 0.00 0.03 0.03 1 1015.2
20260904153804 30 49 9.7 17.7 0.00 0.03 0.03 1 1015.2
20260904153703 30 47 9.7 17.7 0.00 0.03 0.03 1 1015.2
20260904153625 30 47 8.0 17.7 0.00 0.03 0.03 1 1015.2
20260904153504 30 43 8.0 17.7 0.00 0.03 0.03 1 1015.2
20260904153404 30 41 8.0 17.7 0.00 0.03 0.03 1 1015.2
20260904153306 30 41 9.7 17.7 0.00 0.03 0.03 1 1015.2
20260904153204 30 39 8.0 17.7 0.00 0.03 0.03 1 1015.2
20260904153104 30 42 8.0 17.7 0.00 0.03 0.03 1 1015.2
20260904153004 30 39 8.0 17.7 0.00 0.03 0.03 1 1015.1
20260904152904 30 38 6.4 16.1 0.00 0.03 0.03 1 1015.2
20260904152804 30 36 6.4 16.1 0.00 0.03 0.03 1 1015.2
20260904152725 30 35 6.4 11.3 0.00 0.03 0.03 1 1015.1
20260904152604 30 34 6.4 12.9 0.00 0.03 0.03 1 1015.1
20260904152504 30 37 6.4 12.9 0.00 0.03 0.03 1 1015.2
20260904152404 30 39 6.4 12.9 0.00 0.03 0.03 1 1015.1
20260904152306 30 40 6.4 12.9 0.00 0.03 0.03 1 1015.1
20260904152204 30 39 6.4 12.9 0.00 0.03 0.03 1 1015.1
20260904152104 30 37 6.4 12.9 0.00 0.03 0.03 1 1015.1
20260904152004 30 41 4.8 12.9 0.00 0.03 0.03 1 1015.1
20260904151904 30 42 6.4 12.9 0.00 0.03 0.03 1 1015.1
20260904151804 30 43 4.8 12.9 0.00 0.03 0.03 1 1015.1
20260904151725 30 44 4.8 12.9 0.00 0.03 0.03 1 1015.1
20260904151604 29 46 4.8 11.3 0.00 0.03 0.03 1 1015.1
20260904151504 29 45 4.8 11.3 0.00 0.03 0.03 1 1015.1
20260904151404 29 43 6.4 11.3 0.00 0.03 0.03 1 1015.1
20260904151303 29 44 4.8 11.3 0.00 0.03 0.03 1 1015.0
20260904151225 29 45 4.8 11.3 0.00 0.03 0.03 1 1015.1
20260904151104 29 45 4.8 11.3 0.00 0.03 0.03 1 1015.1
20260904151004 29 46 6.4 11.3 0.00 0.03 0.03 1 1015.1
20260904150903 29 45 6.4 12.9 0.00 0.03 0.03 1 1015.1
20260904150825 29 43 6.4 12.9 0.00 0.03 0.03 1 1015.0
20260904150704 29 43 6.4 12.9 0.00 0.03 0.03 1 1015.1
20260904150604 29 46 6.4 12.9 0.00 0.03 0.03 1 1015.1
20260904150503 28 47 6.4 12.9 0.00 0.03 0.03 1 1015.1
20260904150404 28 48 8.0 17.7 0.00 0.03 0.03 1 1015.1
20260904150304 28 47 8.0 17.7 0.00 0.03 0.03 1 1015.0
20260904150225 28 47 8.0 17.7 0.00 0.03 0.03 1 1015.1
20260904150103 28 48 8.0 17.7 0.00 0.03 0.03 1 1015.1
20260904150004 28 47 8.0 17.7 0.00 0.03 0.03 1 1015.0
20260904145925 28 47 8.0 17.7 0.00 0.03 0.03 1 1015.0
20260904145804 28 51 8.0 17.7 0.00 0.03 0.03 1 1015.0
20260904145704 28 52 8.0 17.7 0.00 0.03 0.03 1 1015.1
20260904145604 28 50 8.0 17.7 0.00 0.03 0.03 1 1015.0
20260904145525 28 51 8.0 17.7 0.00 0.03 0.03 1 1015.0
20260904145403 28 54 6.4 12.9 0.00 0.03 0.03 1 1015.0
20260904145305 28 56 8.0 12.9 0.00 0.03 0.03 1 1015.0
20260904145203 27 56 8.0 14.5 0.00 0.03 0.03 1 1015.0
20260904145125 27 56 8.0 14.5 0.00 0.03 0.03 1 1015.0
20260904145004 27 54 8.0 14.5 0.00 0.03 0.03 1 1015.0
20260904144904 27 54 8.0 16.1 0.00 0.03 0.03 1 1015.0
20260904144804 27 54 8.0 16.1 0.00 0.03 0.03 1 1015.0
20260904144704 27 53 8.0 16.1 0.00 0.03 0.03 1 1015.0
20260904144604 27 53 8.0 16.1 0.00 0.03 0.03 1 1015.0
20260904144504 27 53 8.0 16.1 0.00 0.03 0.03 1 1015.0
20260904144404 27 52 8.0 16.1 0.00 0.03 0.03 1 1015.0
20260904144303 27 52 8.0 16.1 0.00 0.03 0.03 1 1015.0
20260904144204 27 55 8.0 16.1 0.00 0.03 0.03 1 1015.1
20260904144103 27 56 6.4 16.1 0.00 0.03 0.03 1 1015.1
20260904144004 27 59 6.4 16.1 0.00 0.03 0.03 1 1015.1
20260904143904 27 60 6.4 12.9 0.00 0.03 0.03 1 1015.1
20260904143803 27 59 6.4 14.5 0.00 0.03 0.03 1 1015.1
20260904143704 27 59 6.4 14.5 0.00 0.03 0.03 1 1015.1
20260904143603 27 61 6.4 14.5 0.00 0.03 0.03 1 1015.1
20260904143504 27 61 6.4 14.5 0.00 0.03 0.03 1 1015.0
20260904143404 27 61 6.4 14.5 0.00 0.03 0.03 1 1015.0
20260904143325 27 60 6.4 14.5 0.00 0.03 0.03 1 1015.0
20260904143203 27 58 6.4 14.5 0.00 0.03 0.03 1 1015.0
20260904143104 27 58 6.4 14.5 0.00 0.03 0.03 1 1015.1
20260904143003 27 60 6.4 17.7 0.00 0.03 0.03 1 1015.0
20260904142903 27 61 6.4 17.7 0.00 0.03 0.03 1 1015.0
20260904142804 27 63 6.4 17.7 0.00 0.03 0.03 1 1015.0
20260904142704 27 63 6.4 17.7 0.00 0.03 0.03 1 1015.0
20260904142604 27 61 6.4 17.7 0.00 0.03 0.03 1 1015.0
20260904142504 27 63 6.4 17.7 0.00 0.03 0.03 1 1015.0
20260904142404 27 64 6.4 17.7 0.00 0.03 0.03 1 1015.0
20260904142306 27 66 6.4 17.7 0.00 0.03 0.03 1 1015.0
20260904142204 27 67 6.4 17.7 0.00 0.03 0.03 1 1015.0
20260904142104 26 68 6.4 17.7 0.00 0.03 0.03 1 1015.0
20260904142004 26 69 6.4 17.7 0.00 0.03 0.03 1 1015.0
20260904141925 26 70 6.4 12.9 0.00 0.03 0.03 1 1015.0
20260904141803 26 68 6.4 12.9 0.00 0.03 0.03 1 1015.0
20260904141703 26 68 6.4 12.9 0.00 0.03 0.03 1 1015.0
20260904141604 26 69 6.4 12.9 0.00 0.03 0.03 1 1015.0
20260904141504 26 68 6.4 12.9 0.00 0.03 0.03 1 1015.0
20260904141403 26 67 6.4 12.9 0.00 0.03 0.03 1 1015.0
20260904141304 26 65 6.4 12.9 0.00 0.03 0.03 1 1015.0
20260904141204 26 64 6.4 11.3 0.00 0.03 0.03 1 1015.0
20260904141104 26 64 6.4 11.3 0.00 0.03 0.03 1 1015.0
20260904141004 26 62 6.4 11.3 0.00 0.03 0.03 1 1015.0
20260904140904 26 61 6.4 11.3 0.00 0.03 0.03 1 1014.9
20260904140825 26 62 6.4 11.3 0.03 0.03 0.03 1 1015.0
20260904140703 26 60 6.4 11.3 0.03 0.03 0.03 1 1014.9
20260904140625 26 59 4.8 11.3 0.03 0.03 0.03 1 1014.9
20260904140504 26 59 4.8 11.3 0.03 0.03 0.03 1 1014.9
20260904140404 26 59 4.8 11.3 0.03 0.03 0.03 1 1014.9
20260904140304 26 59 4.8 11.3 0.03 0.03 0.03 1 1014.9
20260904140225 26 59 4.8 11.3 0.03 0.03 0.03 1 1014.9
20260904140104 26 59 4.8 12.9 0.03 0.03 0.03 1 1014.9
20260904140004 26 58 4.8 12.9 0.03 0.03 0.03 1 1014.9
20260904135903 26 58 4.8 12.9 0.03 0.03 0.03 1 1014.8
20260904135804 26 61 4.8 12.9 0.03 0.03 0.03 1 1014.8
20260904135704 26 62 4.8 12.9 0.03 0.03 0.03 1 1014.8
20260904135625 26 64 6.4 12.9 0.03 0.03 0.03 1 1014.8
20260904135525 26 65 6.4 12.9 0.03 0.03 0.03 1 1014.8
20260904135404 26 67 6.4 12.9 0.03 0.03 0.03 1 1014.8
20260904135306 26 68 6.4 12.9 0.03 0.03 0.03 1 1014.8
20260904135203 26 69 6.4 14.5 0.03 0.03 0.03 1 1014.8
20260904135104 26 68 8.0 16.1 0.03 0.03 0.03 1 1014.8
20260904135025 26 69 8.0 16.1 0.03 0.03 0.03 1 1014.7
20260904134904 26 71 8.0 16.1 0.03 0.03 0.03 1 1014.8
20260904134825 26 71 8.0 16.1 0.03 0.03 0.03 1 1014.7
20260904134704 26 71 8.0 16.1 0.03 0.03 0.03 1 1014.7
20260904134603 26 71 8.0 16.1 0.03 0.03 0.03 1 1014.6
20260904134503 26 70 8.0 16.1 0.03 0.03 0.03 1 1014.6
20260904134403 26 69 9.7 16.1 0.03 0.03 0.03 1 1014.6
20260904134303 26 68 9.7 17.7 0.03 0.03 0.03 1 1014.6
20260904134203 26 69 9.7 17.7 0.03 0.03 0.03 1 1014.6
20260904134104 26 69 9.7 17.7 0.03 0.03 0.03 1 1014.6
20260904134004 26 68 9.7 17.7 0.03 0.03 0.03 1 1014.5
20260904133904 26 67 9.7 17.7 0.03 0.03 0.03 1 1014.6
20260904133804 26 65 9.7 17.7 0.03 0.03 0.03 1 1014.5
20260904133704 26 66 9.7 17.7 0.03 0.03 0.03 1 1014.5
20260904133604 26 66 9.7 17.7 0.03 0.03 0.03 1 1014.5
20260904133524 26 66 9.7 17.7 0.03 0.03 0.03 1 1014.5
20260904133403 25 66 9.7 17.7 0.03 0.03 0.03 1 1014.5
20260904133303 25 66 9.7 17.7 0.03 0.03 0.03 1 1014.5
20260904133204 25 66 9.7 17.7 0.03 0.03 0.03 1 1014.5
20260904133104 25 65 9.7 17.7 0.03 0.03 0.03 1 1014.5
20260904133004 25 66 9.7 17.7 0.03 0.03 0.03 1 1014.5
20260904132924 25 66 9.7 17.7 0.03 0.03 0.03 1 1014.5
20260904132803 25 67 9.7 17.7 0.03 0.03 0.03 1 1014.5
20260904132725 25 66 9.7 17.7 0.03 0.03 0.03 1 1014.5
20260904132603 25 65 9.7 17.7 0.03 0.03 0.03 1 1014.5
20260904132504 25 65 9.7 16.1 0.03 0.03 0.03 1 1014.5
20260904132403 25 64 8.0 16.1 0.03 0.03 0.03 1 1014.5
20260904132306 25 63 8.0 16.1 0.03 0.03 0.03 1 1014.4
20260904132224 25 62 8.0 16.1 0.03 0.03 0.03 1 1014.4
20260904132104 25 62 8.0 16.1 0.03 0.03 0.03 1 1014.5
20260904132003 25 62 8.0 16.1 0.03 0.03 0.03 1 1014.5
20260904131903 25 59 8.0 16.1 0.03 0.03 0.03 1 1014.5
20260904131804 25 58 8.0 14.5 0.03 0.03 0.03 1 1014.5
20260904131704 25 58 8.0 16.1 0.03 0.03 0.03 1 1014.4
20260904131603 25 57 8.0 16.1 0.03 0.03 0.03 1 1014.5
20260904131503 25 58 8.0 16.1 0.03 0.03 0.03 1 1014.5
20260904131424 25 57 8.0 16.1 0.03 0.03 0.03 1 1014.5
20260904131304 25 60 8.0 16.1 0.03 0.03 0.03 1 1014.5
20260904131204 25 61 8.0 16.1 0.03 0.03 0.03 1 1014.5
20260904131124 25 62 8.0 16.1 0.03 0.03 0.03 1 1014.5
20260904131025 25 62 8.0 16.1 0.03 0.03 0.03 1 1014.4
20260904130903 25 62 8.0 16.1 0.03 0.03 0.03 1 1014.5
20260904130804 25 62 8.0 16.1 0.00 0.00 0.00 1 1014.5
20260904130704 25 63 8.0 14.5 0.00 0.00 0.00 1 1014.5
20260904130604 25 64 8.0 14.5 0.00 0.00 0.00 1 1014.5
20260904130504 25 63 8.0 14.5 0.00 0.00 0.00 1 1014.5
20260904130404 25 63 6.4 12.9 0.00 0.00 0.00 1 1014.6
20260904130324 25 62 6.4 12.9 0.00 0.00 0.00 1 1014.6
20260904130203 25 61 6.4 11.3 0.00 0.00 0.00 1 1014.6
20260904130104 25 58 6.4 11.3 0.00 0.00 0.00 1 1014.6
20260904130004 25 57 6.4 11.3 0.00 0.00 0.00 1 1014.6
20260904125903 25 57 6.4 11.3 0.00 0.00 0.00 1 1014.6
20260904125804 25 58 4.8 11.3 0.00 0.00 0.00 1 1014.6
20260904125703 25 57 4.8 11.3 0.00 0.00 0.00 1 1014.7
20260904125604 25 57 4.8 11.3 0.00 0.00 0.00 1 1014.7
20260904125525 25 56 4.8 11.3 0.00 0.00 0.00 1 1014.6
20260904125403 25 56 4.8 9.7 0.00 0.00 0.00 1 1014.6
20260904125305 25 56 3.2 9.7 0.00 0.00 0.00 1 1014.7
20260904125204 25 56 3.2 9.7 0.00 0.00 0.00 1 1014.6
20260904125103 25 57 3.2 9.7 0.00 0.00 0.00 1 1014.6
20260904125004 25 57 3.2 8.0 0.00 0.00 0.00 1 1014.6
20260904124903 25 56 3.2 8.0 0.00 0.00 0.00 1 1014.6
20260904124804 25 54 3.2 6.4 0.00 0.00 0.00 1 1014.6
20260904124724 25 53 1.6 6.4 0.00 0.00 0.00 1 1014.6
20260904124603 25 52 1.6 6.4 0.00 0.00 0.00 1 1014.5
20260904124503 25 51 1.6 6.4 0.00 0.00 0.00 1 1014.6
20260904124403 25 50 1.6 6.4 0.00 0.00 0.00 1 1014.5
20260904124303 25 49 1.6 6.4 0.00 0.00 0.00 1 1014.5
20260904124203 25 49 1.6 6.4 0.00 0.00 0.00 1 1014.5
20260904124103 25 47 1.6 3.2 0.00 0.00 0.00 1 1014.5
20260904124003 25 47 1.6 3.2 0.00 0.00 0.00 1 1014.5
20260904123903 25 47 1.6 3.2 0.00 0.00 0.00 1 1014.6
20260904123804 25 47 1.6 3.2 0.00 0.00 0.00 1 1014.6
20260904123704 25 47 1.6 3.2 0.00 0.00 0.00 1 1014.5
20260904123624 25 47 1.6 3.2 0.00 0.00 0.00 1 1014.6
20260904123503 25 47 1.6 4.8 0.00 0.00 0.00 1 1014.6
20260904123403 25 47 1.6 4.8 0.00 0.00 0.00 1 1014.6
20260904123304 25 47 1.6 4.8 0.00 0.00 0.00 1 1014.5
20260904123203 25 47 1.6 4.8 0.00 0.00 0.00 1 1014.5
20260904123103 25 47 1.6 4.8 0.00 0.00 0.00 1 1014.5
20260904123004 25 47 1.6 4.8 0.00 0.00 0.00 1 1014.5
20260904122924 25 47 1.6 4.8 0.00 0.00 0.00 1 1014.4
20260904122825 25 47 1.6 4.8 0.00 0.00 0.00 1 1014.5
20260904122704 25 47 1.6 4.8 0.00 0.00 0.00 1 1014.5
20260904122603 25 47 1.6 6.4 0.00 0.00 0.00 1 1014.5
20260904122503 25 47 1.6 6.4 0.00 0.00 0.00 1 1014.5
20260904122403 25 47 1.6 6.4 0.00 0.00 0.00 1 1014.4
20260904122306 25 47 1.6 6.4 0.00 0.00 0.00 1 1014.5
20260904122204 25 47 1.6 6.4 0.00 0.00 0.00 1 1014.4
20260904122103 25 47 1.6 6.4 0.00 0.00 0.00 1 1014.4
20260904122003 25 47 1.6 6.4 0.00 0.00 0.00 1 1014.4
20260904121903 25 47 1.6 6.4 0.00 0.00 0.00 1 1014.4
20260904121824 25 47 1.6 6.4 0.00 0.00 0.00 1 1014.4
20260904121704 25 47 1.6 6.4 0.00 0.00 0.00 1 1014.3
20260904121603 25 47 1.6 4.8 0.00 0.00 0.00 1 1014.3
20260904121504 25 47 1.6 4.8 0.00 0.00 0.00 1 1014.3
20260904121404 25 47 1.6 6.4 0.00 0.00 0.00 1 1014.3
20260904121304 25 47 1.6 6.4 0.00 0.00 0.00 1 1014.3
20260904121204 25 47 1.6 6.4 0.00 0.00 0.00 1 1014.2
20260904121104 25 47 1.6 6.4 0.00 0.00 0.00 1 1014.2
20260904121003 25 47 1.6 6.4 0.00 0.00 0.00 1 1014.2
20260904120903 25 47 1.6 6.4 0.00 0.00 0.00 1 1014.1
20260904120803 25 47 1.6 6.4 0.00 0.00 0.00 1 1014.2
20260904120703 25 47 1.6 6.4 0.00 0.00 0.00 1 1014.2
20260904120603 25 47 3.2 6.4 0.00 0.00 0.00 1 1014.1
20260904120503 25 47 1.6 9.7 0.00 0.00 0.00 1 1014.2
20260904120403 25 47 1.6 9.7 0.00 0.00 0.00 1 1014.2
20260904120304 25 47 1.6 9.7 0.00 0.00 0.00 1 1014.2
20260904120204 25 47 1.6 9.7 0.00 0.00 0.00 1 1014.1
20260904120103 25 47 3.2 9.7 0.00 0.00 0.00 1 1014.1
20260904120004 25 47 3.2 9.7 0.00 0.00 0.00 1 1014.1
20260904115924 25 47 3.2 9.7 0.00 0.00 0.00 1 1014.0
20260904115825 25 47 3.2 9.7 0.00 0.00 0.00 1 1014.0
20260904115704 25 42 3.2 9.7 0.00 0.00 0.00 1 1014.1
20260904115603 25 42 3.2 9.7 0.00 0.00 0.00 1 1014.0
20260904115503 25 37 4.8 9.7 0.00 0.00 0.00 1 1014.0
20260904115404 25 34 4.8 12.9 0.00 0.00 0.00 1 1014.0
20260904115306 25 33 4.8 12.9 0.00 0.00 0.00 1 1014.0
20260904115203 25 32 4.8 12.9 0.00 0.00 0.00 1 1014.0
20260904115103 25 31 4.8 12.9 0.00 0.00 0.00 1 1014.0
20260904115004 26 30 4.8 12.9 0.00 0.00 0.00 1 1014.0
20260904114925 26 30 4.8 12.9 0.00 0.00 0.00 1 1014.0
20260904114803 26 20 4.8 12.9 0.00 0.00 0.00 1 1014.0
20260904114704 26 19 4.8 12.9 0.00 0.00 0.00 1 1013.9
20260904114603 26 10 4.8 12.9 0.00 0.00 0.00 1 1014.0
20260904114524 26 6 4.8 12.9 0.00 0.00 0.00 1 1013.9
20260904114404 26 351 4.8 9.7 0.00 0.00 0.00 1 1014.0
20260904114303 26 340 4.8 9.7 0.00 0.00 0.00 1 1014.0
20260904114203 26 334 4.8 9.7 0.00 0.00 0.00 1 1013.9
20260904114104 26 324 4.8 9.7 0.00 0.00 0.00 1 1013.9
20260904114003 26 313 4.8 9.7 0.00 0.00 0.00 1 1013.9
20260904113904 26 311 4.8 12.9 0.00 0.00 0.00 1 1013.9
20260904113824 26 312 4.8 12.9 0.00 0.00 0.00 1 1013.9
20260904113703 26 320 4.8 12.9 0.00 0.00 0.00 1 1013.9
20260904113624 25 324 4.8 12.9 0.00 0.00 0.00 1 1013.9
20260904113504 25 335 4.8 12.9 0.00 0.00 0.00 1 1013.9
20260904113403 25 341 4.8 12.9 0.00 0.00 0.00 1 1013.8
20260904113304 25 351 4.8 12.9 0.00 0.00 0.00 1 1013.8
20260904113203 25 358 4.8 12.9 0.00 0.00 0.00 1 1013.8
20260904113104 25 5 4.8 12.9 0.00 0.00 0.00 1 1013.8
20260904113025 25 12 4.8 12.9 0.00 0.00 0.00 1 1013.9
20260904112903 25 20 4.8 11.3 0.00 0.00 0.00 1 1013.8
20260904112803 25 20 4.8 11.3 0.00 0.00 0.00 1 1013.9
20260904112703 25 19 4.8 12.9 0.00 0.00 0.00 1 1013.9
20260904112603 25 21 4.8 12.9 0.00 0.00 0.00 1 1013.8
20260904112504 25 8 4.8 12.9 0.00 0.00 0.00 1 1013.9
20260904112404 25 360 4.8 12.9 0.00 0.00 0.00 1 1013.8
20260904112306 25 350 4.8 12.9 0.00 0.00 0.00 1 1013.9
20260904112203 25 342 4.8 12.9 0.00 0.00 0.00 1 1013.9
20260904112103 25 343 4.8 12.9 0.00 0.00 0.00 1 1013.9
20260904112003 25 337 4.8 12.9 0.00 0.00 0.00 1 1013.9
20260904111903 25 332 6.4 12.9 0.00 0.00 0.00 1 1013.9
20260904111803 25 332 6.4 12.9 0.00 0.00 0.00 1 1013.9
20260904111724 25 331 6.4 12.9 0.00 0.00 0.00 1 1013.8
20260904111603 25 339 6.4 11.3 0.00 0.00 0.00 1 1013.9
20260904111525 25 340 6.4 11.3 0.00 0.00 0.00 1 1013.8
20260904111424 25 343 6.4 11.3 0.00 0.00 0.00 1 1013.8
20260904111324 25 343 6.4 11.3 0.00 0.00 0.00 1 1013.8
20260904111204 25 340 4.8 11.3 0.00 0.00 0.00 1 1013.8
20260904111103 25 331 6.4 11.3 0.00 0.00 0.00 1 1013.9
20260904111003 25 329 4.8 11.3 0.00 0.00 0.00 1 1013.8
20260904110904 25 322 4.8 11.3 0.00 0.00 0.00 1 1013.8
20260904110803 25 311 4.8 11.3 0.00 0.00 0.00 1 1013.8
20260904110703 25 303 4.8 9.7 0.00 0.00 0.00 1 1013.8
20260904110624 25 298 4.8 11.3 0.00 0.00 0.00 1 1013.8
20260904110504 25 297 4.8 11.3 0.00 0.00 0.00 1 1013.7
20260904110403 25 297 4.8 11.3 0.00 0.00 0.00 1 1013.6
20260904110304 25 296 4.8 11.3 0.00 0.00 0.00 1 1013.6
20260904110203 25 297 4.8 11.3 0.00 0.00 0.00 1 1013.6
20260904110103 25 292 4.8 11.3 0.00 0.00 0.00 1 1013.6
20260904110003 25 288 3.2 11.3 0.00 0.00 0.00 1 1013.6
20260904105903 25 287 3.2 11.3 0.00 0.00 0.00 1 1013.7
20260904105803 25 287 3.2 11.3 0.00 0.00 0.00 1 1013.6
20260904105703 25 287 3.2 11.3 0.00 0.00 0.00 1 1013.7
20260904105603 25 284 3.2 8.0 0.00 0.00 0.00 1 1013.7
20260904105503 25 286 3.2 9.7 0.00 0.00 0.00 1 1013.7
20260904105404 25 286 3.2 9.7 0.00 0.00 0.00 1 1013.7
20260904105306 25 286 3.2 9.7 0.00 0.00 0.00 1 1013.7
20260904105224 25 287 3.2 9.7 0.00 0.00 0.00 1 1013.7
20260904105124 25 289 3.2 9.7 0.00 0.00 0.00 1 1013.7
20260904105024 25 289 3.2 9.7 0.00 0.00 0.00 1 1013.6
20260904104903 25 288 4.8 9.7 0.00 0.00 0.00 1 1013.7
20260904104803 25 286 4.8 9.7 0.00 0.00 0.00 1 1013.7
20260904104703 25 284 4.8 9.7 0.00 0.00 0.00 1 1013.7
20260904104603 25 282 4.8 9.7 0.00 0.00 0.00 1 1013.7
20260904104503 25 278 4.8 9.7 0.00 0.00 0.00 1 1013.7
20260904104403 25 281 4.8 9.7 0.00 0.00 0.00 1 1013.7
20260904104303 25 285 4.8 12.9 0.00 0.00 0.00 1 1013.6
20260904104203 26 288 4.8 12.9 0.00 0.00 0.00 1 1013.6
20260904104103 26 287 4.8 12.9 0.00 0.00 0.00 1 1013.6
20260904104004 25 288 4.8 12.9 0.00 0.00 0.00 1 1013.6
20260904103924 25 289 4.8 12.9 0.00 0.00 0.00 1 1013.6
20260904103803 25 293 4.8 12.9 0.00 0.00 0.00 1 1013.6
20260904103704 25 296 4.8 12.9 0.00 0.00 0.00 1 1013.6
20260904103603 25 298 4.8 12.9 0.00 0.00 0.00 1 1013.6
20260904103525 25 299 4.8 12.9 0.00 0.00 0.00 1 1013.6
20260904103404 26 300 4.8 12.9 0.00 0.00 0.00 1 1013.6
20260904103303 26 297 4.8 11.3 0.00 0.00 0.00 1 1013.6
20260904103203 26 294 4.8 9.7 0.00 0.00 0.00 1 1013.6
20260904103103 26 296 4.8 9.7 0.00 0.00 0.00 1 1013.6
20260904103024 26 296 4.8 9.7 0.00 0.00 0.00 1 1013.6
20260904102903 26 295 3.2 9.7 0.00 0.00 0.00 1 1013.6
20260904102803 26 293 3.2 9.7 0.00 0.00 0.00 1 1013.6
20260904102704 26 291 3.2 9.7 0.00 0.00 0.00 1 1013.5
20260904102603 26 290 3.2 8.0 0.00 0.00 0.00 1 1013.5
20260904102503 26 289 3.2 8.0 0.00 0.00 0.00 1 1013.5
20260904102403 26 290 3.2 11.3 0.00 0.00 0.00 1 1013.5
20260904102306 26 293 3.2 11.3 0.00 0.00 0.00 1 1013.4
20260904102203 26 291 3.2 11.3 0.00 0.00 0.00 1 1013.4
20260904102125 26 290 4.8 11.3 0.00 0.00 0.00 1 1013.4
20260904102003 26 288 4.8 11.3 0.00 0.00 0.00 1 1013.4
20260904101903 26 288 4.8 11.3 0.00 0.00 0.00 1 1013.4
20260904101803 26 287 4.8 11.3 0.00 0.00 0.00 1 1013.4
20260904101703 26 286 4.8 11.3 0.00 0.00 0.00 1 1013.4
20260904101603 26 285 4.8 11.3 0.00 0.00 0.00 1 1013.4
20260904101524 26 284 4.8 11.3 0.00 0.00 0.00 1 1013.4
20260904101403 26 280 4.8 12.9 0.00 0.00 0.00 1 1013.4
20260904101304 26 284 4.8 12.9 0.00 0.00 0.00 1 1013.4
20260904101203 26 292 4.8 12.9 0.00 0.00 0.00 1 1013.3
20260904101103 26 299 4.8 12.9 0.00 0.00 0.00 1 1013.3
20260904101003 26 314 4.8 12.9 0.00 0.00 0.00 1 1013.4
20260904100904 26 326 4.8 12.9 0.00 0.00 0.00 1 1013.4
20260904100803 26 340 4.8 12.9 0.00 0.00 0.00 1 1013.4
20260904100724 26 347 4.8 12.9 0.00 0.00 0.00 1 1013.4
20260904100604 26 357 4.8 12.9 0.00 0.00 0.00 1 1013.4
20260904100503 26 5 3.2 12.9 0.00 0.00 0.00 1 1013.4
20260904100403 26 15 3.2 11.3 0.00 0.00 0.00 1 1013.4
20260904100304 26 19 3.2 8.0 0.00 0.00 0.00 1 1013.5
20260904100203 26 20 3.2 8.0 0.00 0.00 0.00 1 1013.4
20260904100103 26 21 3.2 8.0 0.00 0.00 0.00 1 1013.4
20260904100004 26 22 3.2 8.0 0.00 0.00 0.00 1 1013.4
20260904095903 26 22 3.2 9.7 0.00 0.00 0.00 1 1013.5
20260904095803 26 24 3.2 9.7 0.00 0.00 0.00 1 1013.5
20260904095703 26 24 3.2 9.7 0.00 0.00 0.00 1 1013.5
20260904095603 26 25 3.2 9.7 0.00 0.00 0.00 1 1013.5
20260904095503 26 26 3.2 9.7 0.00 0.00 0.00 1 1013.5
20260904095404 26 26 3.2 9.7 0.00 0.00 0.00 1 1013.5
20260904095306 26 25 4.8 9.7 0.00 0.00 0.00 1 1013.5
20260904095204 26 26 4.8 9.7 0.00 0.00 0.00 1 1013.4
20260904095103 26 26 4.8 11.3 0.00 0.00 0.00 1 1013.4
20260904095003 26 27 4.8 11.3 0.00 0.00 0.00 1 1013.4
20260904094904 26 27 4.8 11.3 0.00 0.00 0.00 1 1013.4
20260904094803 26 27 4.8 11.3 0.00 0.00 0.00 1 1013.4
20260904094703 26 27 3.2 11.3 0.00 0.00 0.00 1 1013.4
20260904094604 26 27 3.2 11.3 0.00 0.00 0.00 1 1013.4
20260904094503 26 27 3.2 11.3 0.00 0.00 0.00 1 1013.4
20260904094404 26 27 3.2 11.3 0.00 0.00 0.00 1 1013.4
20260904094324 26 28 3.2 11.3 0.00 0.00 0.00 1 1013.4
20260904094225 26 29 3.2 11.3 0.00 0.00 0.00 1 1013.3
20260904094103 26 30 3.2 11.3 0.00 0.00 0.00 1 1013.4
20260904094024 26 30 3.2 8.0 0.00 0.00 0.00 1 1013.3
20260904093903 26 30 3.2 8.0 0.00 0.00 0.00 1 1013.4
20260904093804 26 31 3.2 8.0 0.00 0.00 0.00 1 1013.4
20260904093704 26 31 3.2 8.0 0.00 0.00 0.00 1 1013.4
20260904093603 26 31 3.2 8.0 0.00 0.00 0.00 1 1013.3
20260904093503 26 31 3.2 8.0 0.00 0.00 0.00 1 1013.3
20260904093424 26 31 3.2 8.0 0.00 0.00 0.00 1 1013.3
20260904093304 26 32 3.2 8.0 0.00 0.00 0.00 1 1013.3
20260904093224 26 32 3.2 8.0 0.00 0.00 0.00 1 1013.3
20260904093103 26 32 3.2 8.0 0.00 0.00 0.00 1 1013.3
20260904093025 26 32 3.2 8.0 0.00 0.00 0.00 1 1013.3
20260904092904 26 33 3.2 6.4 0.00 0.00 0.00 1 1013.3
20260904092804 26 33 3.2 6.4 0.00 0.00 0.00 1 1013.3
20260904092703 26 33 3.2 6.4 0.00 0.00 0.00 1 1013.3
20260904092603 26 34 3.2 8.0 0.00 0.00 0.00 1 1013.3
20260904092503 26 35 3.2 8.0 0.00 0.00 0.00 1 1013.2
20260904092403 26 36 3.2 8.0 0.00 0.00 0.00 1 1013.2
20260904092306 26 37 3.2 8.0 0.00 0.00 0.00 1 1013.3
20260904092203 26 37 3.2 8.0 0.00 0.00 0.00 1 1013.3
20260904092103 26 38 3.2 8.0 0.00 0.00 0.00 1 1013.2
20260904092004 26 38 3.2 8.0 0.00 0.00 0.00 1 1013.3
20260904091903 26 39 3.2 8.0 0.00 0.00 0.00 1 1013.3
20260904091803 26 40 3.2 8.0 0.00 0.00 0.00 1 1013.3
20260904091724 26 40 3.2 8.0 0.00 0.00 0.00 1 1013.2
20260904091603 26 42 3.2 8.0 0.00 0.00 0.00 1 1013.2
20260904091503 26 42 3.2 8.0 0.00 0.00 0.00 1 1013.2
20260904091403 26 42 3.2 8.0 0.00 0.00 0.00 1 1013.3
20260904091324 26 42 3.2 8.0 0.00 0.00 0.00 1 1013.3
20260904091203 26 42 3.2 8.0 0.00 0.00 0.00 1 1013.3
20260904091103 26 40 3.2 8.0 0.00 0.00 0.00 1 1013.3
20260904091004 26 39 3.2 8.0 0.00 0.00 0.00 1 1013.3
20260904090903 26 39 3.2 8.0 0.00 0.00 0.00 1 1013.3
20260904090803 26 37 3.2 8.0 0.00 0.00 0.00 1 1013.3
20260904090703 26 35 3.2 8.0 0.00 0.00 0.00 1 1013.3
20260904090624 26 34 3.2 8.0 0.00 0.00 0.00 1 1013.3
20260904090504 26 31 3.2 8.0 0.00 0.00 0.00 1 1013.4
20260904090403 26 30 3.2 8.0 0.00 0.00 0.00 1 1013.4
20260904090303 26 28 3.2 8.0 0.00 0.00 0.00 1 1013.4
20260904090225 26 27 3.2 8.0 0.00 0.00 0.00 1 1013.4
20260904090103 26 27 3.2 8.0 0.00 0.00 0.00 1 1013.4
20260904090004 26 27 3.2 8.0 0.00 0.00 0.00 1 1013.4
20260904085904 26 28 3.2 8.0 0.00 0.00 0.00 1 1013.4
20260904085803 26 28 4.8 8.0 0.00 0.00 0.00 1 1013.4
20260904085703 26 29 4.8 8.0 0.00 0.00 0.00 1 1013.5
20260904085603 26 29 4.8 8.0 0.00 0.00 0.00 1 1013.5
20260904085503 26 30 3.2 8.0 0.00 0.00 0.00 1 1013.5
20260904085404 26 31 3.2 8.0 0.00 0.00 0.00 1 1013.5
20260904085305 26 32 3.2 8.0 0.00 0.00 0.00 1 1013.4
20260904085203 26 32 3.2 8.0 0.00 0.00 0.00 1 1013.5
20260904085103 26 34 3.2 8.0 0.00 0.00 0.00 1 1013.4
20260904085024 26 34 3.2 8.0 0.00 0.00 0.00 1 1013.5
20260904084903 26 35 3.2 8.0 0.00 0.00 0.00 1 1013.4
20260904084803 26 36 3.2 8.0 0.00 0.00 0.00 1 1013.4
20260904084703 26 37 3.2 8.0 0.00 0.00 0.00 1 1013.4
20260904084603 26 37 3.2 9.7 0.00 0.00 0.00 1 1013.4
20260904084503 26 38 3.2 9.7 0.00 0.00 0.00 1 1013.4
20260904084403 26 39 4.8 9.7 0.00 0.00 0.00 1 1013.4
20260904084303 26 39 4.8 9.7 0.00 0.00 0.00 1 1013.4
20260904084205 26 39 4.8 9.7 0.00 0.00 0.00 1 1013.4
20260904084103 26 40 4.8 9.7 0.00 0.00 0.00 1 1013.3
20260904084003 26 40 4.8 9.7 0.00 0.00 0.00 1 1013.3
20260904083903 26 41 4.8 9.7 0.00 0.00 0.00 1 1013.3
20260904083804 26 42 4.8 9.7 0.00 0.00 0.00 1 1013.3
20260904083703 26 42 4.8 9.7 0.00 0.00 0.00 1 1013.2
20260904083603 26 44 3.2 9.7 0.00 0.00 0.00 1 1013.2
20260904083504 26 43 3.2 9.7 0.00 0.00 0.00 1 1013.2
20260904083403 26 42 3.2 9.7 0.00 0.00 0.00 1 1013.2
20260904083303 26 43 3.2 8.0 0.00 0.00 0.00 1 1013.2
20260904083224 26 43 3.2 6.4 0.00 0.00 0.00 1 1013.2
20260904083103 26 43 3.2 8.0 0.00 0.00 0.00 1 1013.2
20260904083003 26 42 3.2 8.0 0.00 0.00 0.00 1 1013.2
20260904082924 26 42 3.2 8.0 0.00 0.00 0.00 1 1013.2
20260904082803 26 42 3.2 8.0 0.00 0.00 0.00 1 1013.2
20260904082703 26 42 3.2 8.0 0.00 0.00 0.00 1 1013.2
20260904082603 26 42 3.2 8.0 0.00 0.00 0.00 1 1013.3
20260904082503 26 43 4.8 8.0 0.00 0.00 0.00 1 1013.3
20260904082403 26 44 4.8 8.0 0.00 0.00 0.00 1 1013.3
20260904082306 26 45 4.8 8.0 0.00 0.00 0.00 1 1013.3
20260904082204 26 47 4.8 8.0 0.00 0.00 0.00 1 1013.3
20260904082103 26 45 4.8 9.7 0.00 0.00 0.00 1 1013.3
20260904082003 26 45 4.8 9.7 0.00 0.00 0.00 1 1013.3
20260904081903 26 44 4.8 12.9 0.00 0.00 0.00 1 1013.3
20260904081824 26 42 4.8 12.9 0.00 0.00 0.00 1 1013.3
20260904081724 26 41 4.8 12.9 0.00 0.00 0.00 1 1013.3
20260904081603 26 39 4.8 12.9 0.00 0.00 0.00 1 1013.3
20260904081503 26 35 4.8 12.9 0.00 0.00 0.00 1 1013.3
20260904081403 26 32 4.8 12.9 0.00 0.00 0.00 1 1013.3
20260904081324 26 30 4.8 12.9 0.00 0.00 0.00 1 1013.3
20260904081204 26 27 4.8 12.9 0.00 0.00 0.00 1 1013.3
20260904081104 26 27 4.8 12.9 0.00 0.00 0.00 1 1013.3
20260904081003 26 26 4.8 12.9 0.00 0.00 0.00 1 1013.3
20260904080924 26 25 3.2 12.9 0.00 0.00 0.00 1 1013.3
20260904080804 26 25 3.2 9.7 0.00 0.00 0.00 1 1013.3
20260904080724 26 26 3.2 9.7 0.00 0.00 0.00 1 1013.3
20260904080603 26 26 3.2 9.7 0.00 0.00 0.00 1 1013.2
20260904080504 26 28 3.2 9.7 0.00 0.00 0.00 1 1013.2
20260904080404 26 30 3.2 9.7 0.00 0.00 0.00 1 1013.2
20260904080303 26 36 3.2 9.7 0.00 0.00 0.00 1 1013.2
20260904080203 26 36 4.8 14.5 0.00 0.00 0.00 1 1013.3
20260904080003 26 36 4.8 14.5 0.00 0.00 0.00 1 1013.3
20260904075924 26 36 4.8 14.5 0.00 0.00 0.00 1 1013.2
20260904075803 26 36 4.8 14.5 0.00 0.00 0.00 1 1013.2
20260904075724 26 36 4.8 14.5 0.00 0.00 0.00 1 1013.2
20260904075624 26 36 4.8 14.5 0.00 0.00 0.00 1 1013.2
20260904075503 26 38 4.8 14.5 0.00 0.00 0.00 1 1013.2
20260904075403 26 38 4.8 14.5 0.00 0.00 0.00 1 1013.2
20260904075306 26 38 4.8 14.5 0.00 0.00 0.00 1 1013.3
20260904075225 26 37 4.8 11.3 0.00 0.00 0.00 1 1013.2
20260904075103 26 40 4.8 9.7 0.00 0.00 0.00 1 1013.2
20260904075004 26 41 4.8 9.7 0.00 0.00 0.00 1 1013.3
20260904074924 26 43 4.8 9.7 0.00 0.00 0.00 1 1013.2
20260904074803 26 47 4.8 9.7 0.00 0.00 0.00 1 1013.3
20260904074703 26 48 4.8 9.7 0.00 0.00 0.00 1 1013.2
20260904074603 26 48 4.8 9.7 0.00 0.00 0.00 1 1013.2
20260904074504 26 49 4.8 9.7 0.00 0.00 0.00 1 1013.2
20260904074403 26 49 3.2 9.7 0.00 0.00 0.00 1 1013.2
20260904074303 26 47 3.2 9.7 0.00 0.00 0.00 1 1013.3
20260904074224 26 47 3.2 9.7 0.00 0.00 0.00 1 1013.3
20260904074103 26 48 4.8 8.0 0.00 0.00 0.00 1 1013.3
20260904074024 26 47 4.8 8.0 0.00 0.00 0.00 1 1013.3
20260904073903 26 41 4.8 9.7 0.00 0.00 0.00 1 1013.2
20260904073803 27 38 4.8 9.7 0.00 0.00 0.00 1 1013.3
20260904073703 27 39 4.8 9.7 0.00 0.00 0.00 1 1013.2
20260904073603 27 39 4.8 9.7 0.00 0.00 0.00 1 1013.2
20260904073503 27 39 4.8 11.3 0.00 0.00 0.00 1 1013.2
20260904073403 27 39 4.8 11.3 0.00 0.00 0.00 1 1013.2
20260904073303 27 39 6.4 11.3 0.00 0.00 0.00 1 1013.3
20260904073204 27 39 6.4 11.3 0.00 0.00 0.00 1 1013.3
20260904073124 27 39 6.4 11.3 0.00 0.00 0.00 1 1013.3
20260904073003 27 39 6.4 11.3 0.00 0.00 0.00 1 1013.3
20260904072903 27 42 4.8 11.3 0.00 0.00 0.00 1 1013.3
20260904072803 27 44 4.8 11.3 0.00 0.00 0.00 1 1013.4
20260904072703 27 43 4.8 11.3 0.00 0.00 0.00 1 1013.4
20260904072603 27 43 4.8 11.3 0.00 0.00 0.00 1 1013.4
20260904072503 27 43 4.8 11.3 0.00 0.00 0.00 1 1013.4
20260904072403 27 43 4.8 11.3 0.00 0.00 0.00 1 1013.4
20260904072306 27 44 3.2 11.3 0.00 0.00 0.00 1 1013.4
20260904072203 27 42 4.8 11.3 0.00 0.00 0.00 1 1013.4
20260904072103 27 41 3.2 9.7 0.00 0.00 0.00 1 1013.4
20260904072024 27 41 4.8 9.7 0.00 0.00 0.00 1 1013.5
20260904071903 27 40 4.8 12.9 0.00 0.00 0.00 1 1013.5
20260904071803 27 39 4.8 12.9 0.00 0.00 0.00 1 1013.5
20260904071703 27 38 4.8 12.9 0.00 0.00 0.00 1 1013.5
20260904071603 27 39 4.8 12.9 0.00 0.00 0.00 1 1013.5
20260904071503 27 40 4.8 12.9 0.00 0.00 0.00 1 1013.6
20260904071403 27 41 4.8 12.9 0.00 0.00 0.00 1 1013.6
20260904071303 27 42 4.8 12.9 0.00 0.00 0.00 1 1013.5
20260904071203 27 44 4.8 12.9 0.00 0.00 0.00 1 1013.6
20260904071105 27 45 4.8 12.9 0.00 0.00 0.00 1 1013.6
20260904071024 27 46 4.8 12.9 0.00 0.00 0.00 1 1013.6
20260904070903 27 47 4.8 16.1 0.00 0.00 0.00 1 1013.6
20260904070803 27 48 4.8 16.1 0.00 0.00 0.00 1 1013.6
20260904070703 27 49 4.8 16.1 0.00 0.00 0.00 1 1013.6
20260904070603 27 50 4.8 16.1 0.00 0.00 0.00 1 1013.6
20260904070503 27 50 4.8 16.1 0.00 0.00 0.00 1 1013.6
20260904070403 27 48 4.8 16.1 0.00 0.00 0.00 1 1013.6
20260904070303 27 46 4.8 16.1 0.00 0.00 0.00 1 1013.6
20260904070203 27 45 4.8 16.1 0.00 0.00 0.00 1 1013.6
20260904070103 27 42 4.8 16.1 0.00 0.00 0.00 1 1013.6
20260904070024 27 42 4.8 16.1 0.00 0.00 0.00 1 1013.7
20260904065924 27 43 4.8 11.3 0.00 0.00 0.00 1 1013.6
20260904065803 27 41 4.8 11.3 0.00 0.00 0.00 1 1013.6
20260904065703 27 41 4.8 11.3 0.00 0.00 0.00 1 1013.6
20260904065603 27 40 4.8 11.3 0.00 0.00 0.00 1 1013.6
20260904065524 27 40 4.8 11.3 0.00 0.00 0.00 1 1013.7
20260904065403 27 41 4.8 11.3 0.00 0.00 0.00 1 1013.6
20260904065306 27 42 4.8 11.3 0.00 0.00 0.00 1 1013.6
20260904065203 27 44 4.8 11.3 0.00 0.00 0.00 1 1013.7
20260904065124 27 44 4.8 11.3 0.00 0.00 0.00 1 1013.7
20260904065003 27 44 4.8 9.7 0.00 0.00 0.00 1 1013.6
20260904064924 27 44 4.8 9.7 0.00 0.00 0.00 1 1013.7
20260904064803 27 44 4.8 12.9 0.00 0.00 0.00 1 1013.7
20260904064704 27 44 4.8 12.9 0.00 0.00 0.00 1 1013.7
20260904064603 27 42 4.8 12.9 0.00 0.00 0.00 1 1013.7
20260904064524 27 42 4.8 12.9 0.00 0.00 0.00 1 1013.7
20260904064403 27 41 4.8 12.9 0.00 0.00 0.00 1 1013.7
20260904064303 27 39 6.4 12.9 0.00 0.00 0.00 1 1013.7
20260904064203 27 40 6.4 12.9 0.00 0.00 0.00 1 1013.7
20260904064103 27 40 6.4 12.9 0.00 0.00 0.00 1 1013.6
20260904064003 27 40 6.4 12.9 0.00 0.00 0.00 1 1013.7
20260904063904 27 41 6.4 12.9 0.00 0.00 0.00 1 1013.7
20260904063803 27 42 6.4 12.9 0.00 0.00 0.00 1 1013.7
20260904063703 27 41 6.4 12.9 0.00 0.00 0.00 1 1013.6
20260904063624 27 43 6.4 12.9 0.00 0.00 0.00 1 1013.6
20260904063503 27 43 6.4 12.9 0.00 0.00 0.00 1 1013.7
20260904063403 27 39 6.4 12.9 0.00 0.00 0.00 1 1013.7
20260904063303 27 32 4.8 12.9 0.00 0.00 0.00 1 1013.7
20260904063203 27 29 4.8 12.9 0.00 0.00 0.00 1 1013.7
20260904063103 27 28 4.8 12.9 0.00 0.00 0.00 1 1013.7
20260904063024 27 26 4.8 12.9 0.00 0.00 0.00 1 1013.7
20260904062926 27 25 4.8 12.9 0.00 0.00 0.00 1 1013.7
20260904062803 27 23 4.8 12.9 0.00 0.00 0.00 1 1013.7
20260904062703 27 25 4.8 12.9 0.00 0.00 0.00 1 1013.6
20260904062603 27 26 6.4 12.9 0.00 0.00 0.00 1 1013.7
20260904062503 27 23 6.4 12.9 0.00 0.00 0.00 1 1013.8
20260904062403 27 27 6.4 12.9 0.00 0.00 0.00 1 1013.7
20260904062306 27 32 6.4 12.9 0.00 0.00 0.00 1 1013.7
20260904062203 27 33 6.4 12.9 0.00 0.00 0.00 1 1013.7
20260904062125 27 34 6.4 12.9 0.00 0.00 0.00 1 1013.7
20260904062003 27 34 6.4 12.9 0.00 0.00 0.00 1 1013.7
20260904061903 27 35 6.4 12.9 0.00 0.00 0.00 1 1013.8
20260904061824 27 35 6.4 12.9 0.00 0.00 0.00 1 1013.6
20260904061703 27 33 6.4 16.1 0.00 0.00 0.00 1 1013.7
20260904061624 27 33 6.4 16.1 0.00 0.00 0.00 1 1013.7
20260904061503 27 31 6.4 16.1 0.00 0.00 0.00 1 1013.7
20260904061425 27 32 6.4 16.1 0.00 0.00 0.00 1 1013.6
20260904061303 27 31 6.4 16.1 0.00 0.00 0.00 1 1013.6
20260904061203 27 29 6.4 16.1 0.00 0.00 0.00 1 1013.7
20260904061103 27 28 6.4 16.1 0.00 0.00 0.00 1 1013.7
20260904061004 27 28 6.4 16.1 0.00 0.00 0.00 1 1013.7
20260904060903 27 26 6.4 16.1 0.00 0.00 0.00 1 1013.7
20260904060803 27 24 6.4 16.1 0.00 0.00 0.00 1 1013.7
20260904060703 27 24 6.4 14.5 0.00 0.00 0.00 1 1013.6
20260904060603 27 19 6.4 16.1 0.00 0.00 0.00 1 1013.6
20260904060524 27 22 8.0 16.1 0.00 0.00 0.00 1 1013.6
20260904060403 27 25 8.0 16.1 0.00 0.00 0.00 1 1013.6
20260904060303 27 25 8.0 16.1 0.00 0.00 0.00 1 1013.6
20260904060203 27 25 8.0 16.1 0.00 0.00 0.00 1 1013.6
20260904060103 27 26 8.0 16.1 0.00 0.00 0.00 1 1013.6
20260904060003 27 25 8.0 16.1 0.00 0.00 0.00 1 1013.6
20260904055903 27 24 8.0 16.1 0.00 0.00 0.00 1 1013.7
20260904055803 27 24 8.0 17.7 0.00 0.00 0.00 1 1013.6
20260904055703 27 24 8.0 17.7 0.00 0.00 0.00 1 1013.6
20260904055603 27 28 8.0 17.7 0.00 0.00 0.00 1 1013.6
20260904055524 27 28 8.0 17.7 0.00 0.00 0.00 1 1013.6
20260904055403 27 28 6.4 17.7 0.00 0.00 0.00 1 1013.6
20260904055306 27 31 6.4 17.7 0.00 0.00 0.00 1 1013.6
20260904055206 27 32 6.4 17.7 0.00 0.00 0.00 1 1013.7
20260904055124 27 32 6.4 17.7 0.00 0.00 0.00 1 1013.6
20260904055004 27 31 6.4 17.7 0.00 0.00 0.00 1 1013.7
20260904054903 27 32 6.4 17.7 0.00 0.00 0.00 1 1013.7
20260904054824 27 33 6.4 11.3 0.00 0.00 0.00 1 1013.7
20260904054703 27 36 6.4 11.3 0.00 0.00 0.00 1 1013.7
20260904054603 27 37 6.4 11.3 0.00 0.00 0.00 1 1013.6
20260904054503 27 36 6.4 11.3 0.00 0.00 0.00 1 1013.7
20260904054424 27 36 6.4 12.9 0.00 0.00 0.00 1 1013.7
20260904054303 27 36 6.4 12.9 0.00 0.00 0.00 1 1013.7
20260904054203 27 33 6.4 12.9 0.00 0.00 0.00 1 1013.7
20260904054103 27 33 6.4 12.9 0.00 0.00 0.00 1 1013.6
20260904054003 27 30 6.4 12.9 0.00 0.00 0.00 1 1013.7
20260904053903 27 29 6.4 12.9 0.00 0.00 0.00 1 1013.6
20260904053803 27 29 6.4 12.9 0.00 0.00 0.00 1 1013.6
20260904053703 27 28 6.4 12.9 0.00 0.00 0.00 1 1013.6
20260904053603 27 24 6.4 12.9 0.00 0.00 0.00 1 1013.6
20260904053503 27 26 6.4 12.9 0.00 0.00 0.00 1 1013.6
20260904053403 27 26 6.4 17.7 0.00 0.00 0.00 1 1013.6
20260904053303 27 25 6.4 17.7 0.00 0.00 0.00 1 1013.5
20260904053203 27 26 6.4 17.7 0.00 0.00 0.00 1 1013.6
20260904053103 27 25 6.4 17.7 0.00 0.00 0.00 1 1013.6
20260904053003 27 31 6.4 17.7 0.00 0.00 0.00 1 1013.6
20260904052903 27 29 6.4 17.7 0.00 0.00 0.00 1 1013.6
20260904052804 27 24 6.4 17.7 0.00 0.00 0.00 1 1013.5
20260904052703 27 21 6.4 17.7 0.00 0.00 0.00 1 1013.6
20260904052603 27 23 6.4 17.7 0.00 0.00 0.00 1 1013.6
20260904052503 27 21 6.4 17.7 0.00 0.00 0.00 1 1013.6
20260904052403 27 20 6.4 14.5 0.00 0.00 0.00 1 1013.6
20260904052306 27 18 6.4 16.1 0.00 0.00 0.00 1 1013.6
20260904052203 27 18 6.4 16.1 0.00 0.00 0.00 1 1013.6
20260904052103 27 16 6.4 16.1 0.00 0.00 0.00 1 1013.6
20260904052003 27 16 6.4 16.1 0.00 0.00 0.00 1 1013.6
20260904051905 27 22 6.4 16.1 0.00 0.00 0.00 1 1013.6
20260904051803 27 28 6.4 16.1 0.00 0.00 0.00 1 1013.5
20260904051724 27 28 6.4 16.1 0.00 0.00 0.00 1 1013.5
20260904051603 27 28 6.4 16.1 0.00 0.00 0.00 1 1013.5
20260904051504 27 30 6.4 16.1 0.00 0.00 0.00 1 1013.5
20260904051403 27 28 6.4 17.7 0.00 0.00 0.00 1 1013.5
20260904051303 27 31 6.4 17.7 0.00 0.00 0.00 1 1013.5
20260904051203 27 27 6.4 17.7 0.00 0.00 0.00 1 1013.5
20260904051103 27 28 6.4 17.7 0.00 0.00 0.00 1 1013.5
20260904051003 27 24 8.0 17.7 0.00 0.00 0.00 1 1013.5
20260904050903 27 16 8.0 19.3 0.00 0.00 0.00 1 1013.5
20260904050803 27 17 8.0 19.3 0.00 0.00 0.00 1 1013.5
20260904050703 27 16 8.0 19.3 0.00 0.00 0.00 1 1013.5
20260904050603 27 16 8.0 19.3 0.00 0.00 0.00 1 1013.5
20260904050503 27 9 8.0 19.3 0.00 0.00 0.00 1 1013.5
20260904050403 27 360 8.0 19.3 0.00 0.00 0.00 1 1013.5
20260904050324 27 355 8.0 19.3 0.00 0.00 0.00 1 1013.5
20260904050224 27 348 8.0 19.3 0.00 0.00 0.00 1 1013.5
20260904050124 27 345 8.0 19.3 0.00 0.00 0.00 1 1013.5
20260904050004 27 343 6.4 19.3 0.00 0.00 0.00 1 1013.4
20260904045904 27 351 6.4 17.7 0.00 0.00 0.00 1 1013.4
20260904045803 27 347 6.4 17.7 0.00 0.00 0.00 1 1013.5
20260904045703 27 339 6.4 12.9 0.00 0.00 0.00 1 1013.4
20260904045603 27 340 6.4 12.9 0.00 0.00 0.00 1 1013.5
20260904045503 27 348 6.4 12.9 0.00 0.00 0.00 1 1013.5
20260904045403 27 360 6.4 14.5 0.00 0.00 0.00 1 1013.5
20260904045306 27 7 6.4 14.5 0.00 0.00 0.00 1 1013.5
20260904045203 27 11 8.0 14.5 0.00 0.00 0.00 1 1013.5
20260904045103 27 11 8.0 17.7 0.00 0.00 0.00 1 1013.5
20260904045024 27 11 8.0 19.3 0.00 0.00 0.00 1 1013.5
20260904044904 27 10 8.0 19.3 0.00 0.00 0.00 1 1013.5
20260904044803 27 6 8.0 19.3 0.00 0.00 0.00 1 1013.6
20260904044703 27 9 8.0 19.3 0.00 0.00 0.00 1 1013.5
20260904044603 27 9 8.0 19.3 0.00 0.00 0.00 1 1013.5
20260904044503 27 11 8.0 19.3 0.00 0.00 0.00 1 1013.6
20260904044403 27 15 8.0 19.3 0.00 0.00 0.00 1 1013.5
20260904044303 27 17 8.0 19.3 0.00 0.00 0.00 1 1013.5
20260904044203 27 13 8.0 19.3 0.00 0.00 0.00 1 1013.6
20260904044104 27 12 8.0 19.3 0.00 0.00 0.00 1 1013.6
20260904044003 27 11 6.4 17.7 0.00 0.00 0.00 1 1013.6
20260904043904 27 9 6.4 16.1 0.00 0.00 0.00 1 1013.6
20260904043803 27 15 6.4 14.5 0.00 0.00 0.00 1 1013.6
20260904043703 27 21 6.4 12.9 0.00 0.00 0.00 1 1013.5
20260904043603 27 19 6.4 12.9 0.00 0.00 0.00 1 1013.5
20260904043503 27 10 6.4 12.9 0.00 0.00 0.00 1 1013.5
20260904043403 27 2 6.4 12.9 0.00 0.00 0.00 1 1013.5
20260904043303 27 355 4.8 12.9 0.00 0.00 0.00 1 1013.5
20260904043203 27 354 4.8 12.9 0.00 0.00 0.00 1 1013.5
20260904043103 27 347 6.4 16.1 0.00 0.00 0.00 1 1013.4
20260904043003 27 345 6.4 16.1 0.00 0.00 0.00 1 1013.4
20260904042924 27 340 6.4 16.1 0.00 0.00 0.00 1 1013.4
20260904042803 27 336 6.4 16.1 0.00 0.00 0.00 1 1013.4
20260904042724 27 334 6.4 16.1 0.00 0.00 0.00 1 1013.4
20260904042603 27 334 8.0 16.1 0.00 0.00 0.00 1 1013.4
20260904042524 27 340 8.0 16.1 0.00 0.00 0.00 1 1013.4
20260904042424 27 345 8.0 16.1 0.00 0.00 0.00 1 1013.4
20260904042306 27 343 8.0 16.1 0.00 0.00 0.00 1 1013.4
20260904042203 27 352 8.0 16.1 0.00 0.00 0.00 1 1013.4
20260904042124 27 357 8.0 16.1 0.00 0.00 0.00 1 1013.4
20260904042003 27 2 6.4 16.1 0.00 0.00 0.00 1 1013.4
20260904041903 27 10 6.4 16.1 0.00 0.00 0.00 1 1013.4
20260904041824 27 7 6.4 16.1 0.00 0.00 0.00 1 1013.5
20260904041703 27 11 6.4 16.1 0.00 0.00 0.00 1 1013.5
20260904041603 27 13 6.4 16.1 0.00 0.00 0.00 1 1013.5
20260904041503 27 12 6.4 16.1 0.00 0.00 0.00 1 1013.4
20260904041403 27 9 8.0 16.1 0.00 0.00 0.00 1 1013.5
20260904041303 27 6 8.0 16.1 0.00 0.00 0.00 1 1013.4
20260904041203 27 2 8.0 16.1 0.00 0.00 0.00 1 1013.4
20260904041103 27 357 8.0 16.1 0.00 0.00 0.00 1 1013.4
20260904041003 27 354 8.0 17.7 0.00 0.00 0.00 1 1013.4
20260904040903 27 349 8.0 17.7 0.00 0.00 0.00 1 1013.4
20260904040803 27 343 8.0 17.7 0.00 0.00 0.00 1 1013.4
20260904040703 27 338 8.0 17.7 0.00 0.00 0.00 1 1013.4
20260904040603 27 331 8.0 17.7 0.00 0.00 0.00 1 1013.4
20260904040503 27 327 9.7 17.7 0.00 0.00 0.00 1 1013.4
20260904040403 27 325 8.0 17.7 0.00 0.00 0.00 1 1013.5
20260904040324 27 327 8.0 17.7 0.00 0.00 0.00 1 1013.5
20260904040203 27 326 8.0 17.7 0.00 0.00 0.00 1 1013.4
20260904040103 27 328 8.0 17.7 0.00 0.00 0.00 1 1013.5
20260904040004 27 336 8.0 19.3 0.00 0.00 0.00 1 1013.4
20260904035903 27 332 8.0 19.3 0.00 0.00 0.00 1 1013.4
20260904035825 27 334 8.0 19.3 0.00 0.00 0.00 1 1013.4
20260904035703 27 339 8.0 19.3 0.00 0.00 0.00 1 1013.4
20260904035604 27 345 8.0 19.3 0.00 0.00 0.00 1 1013.4
20260904035503 27 349 8.0 19.3 0.00 0.00 0.00 1 1013.4
20260904035403 27 352 8.0 19.3 0.00 0.00 0.00 1 1013.4
20260904035306 27 342 8.0 19.3 0.00 0.00 0.00 1 1013.3
20260904035203 27 342 8.0 19.3 0.00 0.00 0.00 1 1013.4
20260904035103 27 339 8.0 19.3 0.00 0.00 0.00 1 1013.3
20260904035003 27 334 8.0 19.3 0.00 0.00 0.00 1 1013.3
20260904034926 27 335 8.0 19.3 0.00 0.00 0.00 1 1013.3
20260904034805 27 329 8.0 19.3 0.00 0.00 0.00 1 1013.3
20260904034703 27 335 8.0 19.3 0.00 0.00 0.00 1 1013.3
20260904034603 27 334 8.0 19.3 0.00 0.00 0.00 1 1013.2
20260904034503 27 330 8.0 19.3 0.00 0.00 0.00 1 1013.3
20260904034403 27 327 8.0 19.3 0.00 0.00 0.00 1 1013.3
20260904034303 27 329 8.0 19.3 0.00 0.00 0.00 1 1013.2
20260904034203 27 322 8.0 19.3 0.00 0.00 0.00 1 1013.3
20260904034103 27 322 8.0 19.3 0.00 0.00 0.00 1 1013.3
20260904034003 27 323 6.4 17.7 0.00 0.00 0.00 1 1013.3
20260904033903 27 336 6.4 16.1 0.00 0.00 0.00 1 1013.3
20260904033803 27 341 6.4 16.1 0.00 0.00 0.00 1 1013.3
20260904033703 27 337 8.0 16.1 0.00 0.00 0.00 1 1013.3
20260904033603 27 332 8.0 16.1 0.00 0.00 0.00 1 1013.3
20260904033503 27 329 6.4 14.5 0.00 0.00 0.00 1 1013.3
20260904033424 27 331 6.4 14.5 0.00 0.00 0.00 1 1013.3
20260904033303 27 340 6.4 14.5 0.00 0.00 0.00 1 1013.3
20260904033203 27 347 6.4 14.5 0.00 0.00 0.00 1 1013.3
20260904033103 27 345 6.4 14.5 0.00 0.00 0.00 1 1013.3
20260904033024 27 343 6.4 14.5 0.00 0.00 0.00 1 1013.3
20260904032903 27 329 6.4 14.5 0.00 0.00 0.00 1 1013.3
20260904032803 27 323 4.8 14.5 0.00 0.00 0.00 1 1013.3
20260904032703 27 311 4.8 14.5 0.00 0.00 0.00 1 1013.3
20260904032603 27 310 4.8 14.5 0.00 0.00 0.00 1 1013.3
20260904032503 27 306 4.8 14.5 0.00 0.00 0.00 1 1013.3
20260904032403 27 300 4.8 14.5 0.00 0.00 0.00 1 1013.3
20260904032324 27 294 4.8 14.5 0.00 0.00 0.00 1 1013.2
20260904032203 28 281 4.8 14.5 0.00 0.00 0.00 1 1013.3
20260904032103 28 281 4.8 14.5 0.00 0.00 0.00 1 1013.3
20260904032003 28 280 4.8 14.5 0.00 0.00 0.00 1 1013.3
20260904031903 28 278 4.8 14.5 0.00 0.00 0.00 1 1013.2
20260904031803 28 280 4.8 19.3 0.00 0.00 0.00 1 1013.2
20260904031703 28 283 4.8 19.3 0.00 0.00 0.00 1 1013.2
20260904031603 28 290 4.8 19.3 0.00 0.00 0.00 1 1013.2
20260904031503 28 294 4.8 19.3 0.00 0.00 0.00 1 1013.2
20260904031403 28 291 4.8 19.3 0.00 0.00 0.00 1 1013.2
20260904031303 28 294 4.8 19.3 0.00 0.00 0.00 1 1013.3
20260904031203 28 305 4.8 19.3 0.00 0.00 0.00 1 1013.3
20260904031103 28 310 6.4 19.3 0.00 0.00 0.00 1 1013.2
20260904031003 28 317 6.4 19.3 0.00 0.00 0.00 1 1013.3
20260904030903 28 320 6.4 19.3 0.00 0.00 0.00 1 1013.2
20260904030803 28 320 6.4 20.9 0.00 0.00 0.00 1 1013.2
20260904030703 28 320 8.0 20.9 0.00 0.00 0.00 1 1013.2
20260904030603 28 318 8.0 20.9 0.00 0.00 0.00 1 1013.2
20260904030503 28 319 8.0 20.9 0.00 0.00 0.00 1 1013.2
20260904030403 28 323 8.0 20.9 0.00 0.00 0.00 1 1013.2
20260904030304 28 324 6.4 20.9 0.00 0.00 0.00 1 1013.2
20260904030203 28 316 8.0 20.9 0.00 0.00 0.00 1 1013.2
20260904030124 28 313 8.0 20.9 0.00 0.00 0.00 1 1013.2
20260904030004 28 317 8.0 20.9 0.00 0.00 0.00 1 1013.2
20260904025904 28 317 8.0 20.9 0.00 0.00 0.00 1 1013.1
20260904025803 28 321 8.0 22.5 0.00 0.00 0.00 1 1013.2
20260904025703 28 319 8.0 22.5 0.00 0.00 0.00 1 1013.1
20260904025603 28 315 8.0 22.5 0.00 0.00 0.00 1 1013.2
20260904025503 28 314 8.0 22.5 0.00 0.00 0.00 1 1013.2
20260904025403 28 314 8.0 22.5 0.00 0.00 0.00 1 1013.1
20260904025306 28 315 8.0 22.5 0.00 0.00 0.00 1 1013.1
20260904025203 28 316 8.0 22.5 0.00 0.00 0.00 1 1013.1
20260904025103 28 311 6.4 22.5 0.00 0.00 0.00 1 1013.1
20260904025003 28 307 6.4 22.5 0.00 0.00 0.00 1 1013.1
20260904024903 28 311 6.4 22.5 0.00 0.00 0.00 1 1013.1
20260904024803 28 308 6.4 22.5 0.00 0.00 0.00 1 1013.1
20260904024703 28 315 4.8 22.5 0.00 0.00 0.00 1 1013.1
20260904024603 28 314 4.8 11.3 0.00 0.00 0.00 1 1013.0
20260904024524 28 316 4.8 11.3 0.00 0.00 0.00 1 1013.1
20260904024403 28 324 4.8 11.3 0.00 0.00 0.00 1 1013.1
20260904024303 28 336 4.8 11.3 0.00 0.00 0.00 1 1013.0
20260904024203 28 345 4.8 11.3 0.00 0.00 0.00 1 1013.0
20260904024103 28 357 4.8 9.7 0.00 0.00 0.00 1 1013.0
20260904024024 28 360 4.8 9.7 0.00 0.00 0.00 1 1013.0
20260904023925 28 356 3.2 14.5 0.00 0.00 0.00 1 1013.0
20260904023824 28 353 4.8 14.5 0.00 0.00 0.00 1 1013.0
20260904023724 28 351 4.8 14.5 0.00 0.00 0.00 1 1013.0
20260904023604 28 360 4.8 14.5 0.00 0.00 0.00 1 1012.9
20260904023503 28 356 4.8 14.5 0.00 0.00 0.00 1 1012.9
20260904023403 28 350 4.8 14.5 0.00 0.00 0.00 1 1012.9
20260904023303 28 341 4.8 14.5 0.00 0.00 0.00 1 1012.9
20260904023203 28 337 6.4 14.5 0.00 0.00 0.00 1 1012.9
20260904023103 28 332 6.4 14.5 0.00 0.00 0.00 1 1012.9
20260904023003 28 331 6.4 14.5 0.00 0.00 0.00 1 1012.9
20260904022903 28 331 6.4 17.7 0.00 0.00 0.00 1 1012.9
20260904022803 28 325 6.4 17.7 0.00 0.00 0.00 1 1012.9
20260904022703 28 323 6.4 17.7 0.00 0.00 0.00 1 1012.9
20260904022603 28 322 6.4 17.7 0.00 0.00 0.00 1 1012.9
20260904022503 28 321 6.4 17.7 0.00 0.00 0.00 1 1012.8
20260904022403 28 317 6.4 17.7 0.00 0.00 0.00 1 1012.8
20260904022305 28 317 6.4 17.7 0.00 0.00 0.00 1 1012.7
20260904022203 28 314 6.4 17.7 0.00 0.00 0.00 1 1012.8
20260904022103 28 318 6.4 17.7 0.00 0.00 0.00 1 1012.8
20260904022024 28 317 6.4 17.7 0.00 0.00 0.00 1 1012.8
20260904021903 28 305 6.4 17.7 0.00 0.00 0.00 1 1012.8
20260904021803 28 304 6.4 17.7 0.00 0.00 0.00 1 1012.7
20260904021703 28 299 6.4 17.7 0.00 0.00 0.00 1 1012.7
20260904021603 28 295 6.4 17.7 0.00 0.00 0.00 1 1012.7
20260904021524 28 287 6.4 17.7 0.00 0.00 0.00 1 1012.7
20260904021403 28 296 6.4 20.9 0.00 0.00 0.00 1 1012.6
20260904021324 28 299 6.4 20.9 0.00 0.00 0.00 1 1012.7
20260904021224 28 292 6.4 20.9 0.00 0.00 0.00 1 1012.6
20260904021103 28 286 6.4 20.9 0.00 0.00 0.00 1 1012.6
20260904021024 28 288 6.4 20.9 0.00 0.00 0.00 1 1012.6
20260904020903 28 284 6.4 20.9 0.00 0.00 0.00 1 1012.6
20260904020803 28 280 6.4 20.9 0.00 0.00 0.00 1 1012.6
20260904020703 28 279 6.4 20.9 0.00 0.00 0.00 1 1012.6
20260904020603 28 279 6.4 20.9 0.00 0.00 0.00 1 1012.6
20260904020503 28 287 6.4 19.3 0.00 0.00 0.00 1 1012.6
20260904020403 28 280 6.4 14.5 0.00 0.00 0.00 1 1012.6
20260904020303 28 279 6.4 14.5 0.00 0.00 0.00 1 1012.6
20260904020203 28 282 6.4 14.5 0.00 0.00 0.00 1 1012.5
20260904020124 28 284 6.4 14.5 0.00 0.00 0.00 1 1012.5
20260904020003 28 284 6.4 14.5 0.00 0.00 0.00 1 1012.6
20260904015903 28 288 6.4 17.7 0.00 0.00 0.00 1 1012.6
20260904015803 28 291 6.4 17.7 0.00 0.00 0.00 1 1012.6
20260904015703 28 292 6.4 17.7 0.00 0.00 0.00 1 1012.5
20260904015603 28 292 6.4 17.7 0.00 0.00 0.00 1 1012.5
20260904015503 28 295 6.4 17.7 0.00 0.00 0.00 1 1012.4
20260904015403 28 297 6.4 17.7 0.00 0.00 0.00 1 1012.3
20260904015324 28 305 6.4 17.7 0.00 0.00 0.00 1 1012.4
20260904015203 28 304 6.4 17.7 0.00 0.00 0.00 1 1012.3
20260904015103 28 300 6.4 17.7 0.00 0.00 0.00 1 1012.4
20260904015024 28 301 6.4 17.7 0.00 0.00 0.00 1 1012.3
20260904014924 28 306 6.4 17.7 0.00 0.00 0.00 1 1012.4
20260904014824 28 306 6.4 17.7 0.00 0.00 0.00 1 1012.4
20260904014703 28 303 6.4 17.7 0.00 0.00 0.00 2 1012.3
20260904014603 28 299 6.4 17.7 0.00 0.00 0.00 3 1012.4
20260904014503 28 294 6.4 17.7 0.00 0.00 0.00 4 1012.3
20260904014403 28 293 6.4 17.7 0.00 0.00 0.00 5 1012.3
20260904014303 28 285 6.4 17.7 0.00 0.00 0.00 6 1012.3
20260904014203 28 284 6.4 17.7 0.00 0.00 0.00 6 1012.3
20260904014103 29 287 6.4 17.7 0.00 0.00 0.00 7 1012.3
20260904014003 29 285 6.4 17.7 0.00 0.00 0.00 8 1012.2
20260904013903 29 279 6.4 17.7 0.00 0.00 0.00 8 1012.2
20260904013803 29 280 6.4 17.7 0.00 0.00 0.00 9 1012.2
20260904013703 29 283 6.4 17.7 0.00 0.00 0.00 9 1012.1
20260904013603 29 287 6.4 17.7 0.00 0.00 0.00 10 1012.2
20260904013503 29 287 6.4 17.7 0.00 0.00 0.00 11 1012.1
20260904013424 29 285 6.4 17.7 0.00 0.00 0.00 11 1012.1
20260904013303 29 283 6.4 16.1 0.00 0.00 0.00 12 1012.1
20260904013203 29 281 6.4 16.1 0.00 0.00 0.00 13 1012.1
20260904013124 29 279 6.4 16.1 0.00 0.00 0.00 13 1012.0
20260904013003 29 280 6.4 16.1 0.00 0.00 0.00 14 1012.0
20260904012903 29 283 6.4 16.1 0.00 0.00 0.00 15 1012.0
20260904012824 29 283 6.4 16.1 0.00 0.00 0.00 15 1012.0
20260904012703 29 280 6.4 16.1 0.00 0.00 0.00 16 1011.9
20260904012603 29 280 6.4 16.1 0.00 0.00 0.00 17 1011.9
20260904012524 29 281 6.4 16.1 0.00 0.00 0.00 17 1011.9
20260904012403 29 289 8.0 16.1 0.00 0.00 0.00 17 1011.8
20260904012306 29 289 8.0 16.1 0.00 0.00 0.00 18 1011.8
20260904012203 29 291 8.0 16.1 0.00 0.00 0.00 18 1011.8
20260904012103 29 292 8.0 16.1 0.00 0.00 0.00 18 1011.8
20260904012003 29 295 6.4 16.1 0.00 0.00 0.00 19 1011.9
20260904011903 29 292 6.4 16.1 0.00 0.00 0.00 19 1011.9
20260904011803 29 294 8.0 16.1 0.00 0.00 0.00 19 1011.9
20260904011703 29 297 8.0 16.1 0.00 0.00 0.00 19 1011.9
20260904011603 29 297 6.4 16.1 0.00 0.00 0.00 20 1011.9
20260904011503 29 295 6.4 16.1 0.00 0.00 0.00 20 1011.9
20260904011403 29 288 6.4 16.1 0.00 0.00 0.00 20 1011.9
20260904011303 29 291 6.4 16.1 0.00 0.00 0.00 20 1011.9
20260904011203 29 294 6.4 20.9 0.00 0.00 0.00 21 1011.9
20260904011103 29 294 6.4 20.9 0.00 0.00 0.00 21 1011.9
20260904011003 30 294 6.4 20.9 0.00 0.00 0.00 21 1011.9
20260904010903 30 295 6.4 20.9 0.00 0.00 0.00 21 1011.9
20260904010803 30 296 4.8 20.9 0.00 0.00 0.00 21 1011.9
20260904010703 30 294 4.8 20.9 0.00 0.00 0.00 21 1011.9
20260904010603 30 290 4.8 20.9 0.00 0.00 0.00 21 1011.9
20260904010503 30 289 6.4 20.9 0.00 0.00 0.00 21 1011.9
20260904010404 30 287 6.4 20.9 0.00 0.00 0.00 21 1011.9
20260904010324 30 288 4.8 20.9 0.00 0.00 0.00 22 1011.9
20260904010203 30 276 4.8 12.9 0.00 0.00 0.00 22 1011.9
20260904010103 30 274 4.8 12.9 0.00 0.00 0.00 22 1011.9
20260904010003 30 274 4.8 12.9 0.00 0.00 0.00 22 1011.9
20260904005924 30 272 6.4 12.9 0.00 0.00 0.00 22 1011.9
20260904005803 30 270 6.4 12.9 0.00 0.00 0.00 23 1011.9
20260904005703 30 269 6.4 12.9 0.00 0.00 0.00 23 1011.9
20260904005603 30 273 6.4 14.5 0.00 0.00 0.00 23 1011.9
20260904005504 30 272 6.4 14.5 0.00 0.00 0.00 23 1011.9
20260904005403 30 273 6.4 14.5 0.00 0.00 0.00 23 1011.9
20260904005306 30 271 6.4 14.5 0.00 0.00 0.00 23 1011.9
20260904005203 30 271 6.4 14.5 0.00 0.00 0.00 24 1011.9
20260904005103 30 268 6.4 14.5 0.00 0.00 0.00 24 1011.9
20260904005003 30 268 6.4 14.5 0.00 0.00 0.00 24 1011.9
20260904004903 30 267 6.4 14.5 0.00 0.00 0.00 24 1011.9
20260904004824 30 267 6.4 14.5 0.00 0.00 0.00 24 1011.9
20260904004703 30 264 6.4 14.5 0.00 0.00 0.00 24 1012.0
20260904004624 30 260 6.4 14.5 0.00 0.00 0.00 25 1011.9
20260904004503 30 260 6.4 14.5 0.00 0.00 0.00 25 1011.9
20260904004424 30 261 6.4 14.5 0.00 0.00 0.00 25 1011.9
20260904004303 30 261 6.4 14.5 0.00 0.00 0.00 25 1011.9
20260904004203 30 262 6.4 14.5 0.00 0.00 0.00 25 1011.9
20260904004124 30 263 6.4 14.5 0.00 0.00 0.00 25 1011.9
20260904004003 30 264 6.4 16.1 0.00 0.00 0.00 26 1011.9
20260904003903 30 267 6.4 16.1 0.00 0.00 0.00 26 1011.9
20260904003805 30 266 6.4 16.1 0.00 0.00 0.00 26 1011.9
20260904003703 30 267 6.4 16.1 0.00 0.00 0.00 26 1011.9
20260904003603 30 269 6.4 16.1 0.00 0.00 0.00 26 1011.9
20260904003503 30 274 6.4 16.1 0.00 0.00 0.00 26 1012.0
20260904003403 30 274 6.4 16.1 0.00 0.00 0.00 26 1012.0
20260904003304 30 279 6.4 16.1 0.00 0.00 0.00 26 1012.0
20260904003203 30 282 6.4 16.1 0.00 0.00 0.00 26 1012.0
20260904003103 30 284 6.4 16.1 0.00 0.00 0.00 26 1012.0
20260904003003 30 284 6.4 16.1 0.00 0.00 0.00 26 1012.0
20260904002903 30 283 6.4 16.1 0.00 0.00 0.00 26 1012.0
20260904002803 30 285 6.4 16.1 0.00 0.00 0.00 26 1011.9
20260904002703 30 283 6.4 16.1 0.00 0.00 0.00 26 1011.9
20260904002603 30 280 8.0 16.1 0.00 0.00 0.00 27 1011.9
20260904002503 30 276 8.0 16.1 0.00 0.00 0.00 27 1011.9
20260904002403 30 274 8.0 16.1 0.00 0.00 0.00 27 1011.9
20260904002306 30 271 6.4 16.1 0.00 0.00 0.00 27 1011.9
20260904002203 30 270 6.4 16.1 0.00 0.00 0.00 28 1011.9
20260904002103 30 273 6.4 16.1 0.00 0.00 0.00 28 1011.8
20260904002003 30 272 6.4 16.1 0.00 0.00 0.00 28 1011.8
20260904001903 30 273 6.4 16.1 0.00 0.00 0.00 28 1011.8
20260904001803 30 272 6.4 12.9 0.00 0.00 0.00 28 1011.8
20260904001703 31 278 6.4 14.5 0.00 0.00 0.00 28 1011.7
20260904001603 31 286 6.4 19.3 0.00 0.00 0.00 29 1011.8
20260904001503 31 289 8.0 22.5 0.00 0.00 0.00 29 1011.8
20260904001403 31 293 8.0 22.5 0.00 0.00 0.00 29 1011.7
20260904001303 31 294 6.4 22.5 0.00 0.00 0.00 29 1011.7
20260904001224 31 294 8.0 22.5 0.00 0.00 0.00 29 1011.8
20260904001103 31 293 8.0 22.5 0.00 0.00 0.00 29 1011.8
20260904001003 31 295 8.0 22.5 0.00 0.00 0.00 29 1011.8
20260904000924 31 295 8.0 22.5 0.00 0.00 0.00 29 1011.8
20260904000804 31 295 8.0 22.5 0.00 0.00 0.00 29 1011.9
20260904000724 31 294 8.0 22.5 0.00 0.00 0.00 29 1011.8
20260904000624 31 289 8.0 22.5 0.00 0.00 0.00 29 1011.8
20260904000503 31 287 8.0 24.1 0.00 0.00 0.00 29 1011.8
20260904000403 31 288 9.7 24.1 0.00 0.00 0.00 29 1011.8
20260904000303 31 287 9.7 24.1 0.00 0.00 0.00 29 1011.8
20260904000204 31 285 9.7 24.1 0.00 0.00 0.00 30 1011.8
20260904000124 31 284 9.7 24.1 0.00 0.00 0.00 30 1011.7
20260904000003 31 277 9.7 24.1 0.00 0.00 0.00 30 1011.7
20260903235924 31 275 9.7 24.1 0.00 0.00 0.00 30 1011.7
20260903235803 31 277 9.7 24.1 0.00 0.00 0.00 30 1011.7
20260903235724 31 276 9.7 24.1 0.00 0.00 0.00 30 1011.7
20260903235624 31 276 9.7 24.1 0.00 0.00 0.00 30 1011.7
20260903235525 31 276 9.7 22.5 0.00 0.00 0.00 30 1011.7
20260903235403 31 271 9.7 24.1 0.00 0.00 0.00 30 1011.7
20260903235305 31 271 9.7 24.1 0.00 0.00 0.00 30 1011.7
20260903235203 31 275 9.7 24.1 0.00 0.00 0.00 30 1011.7
20260903235103 31 280 9.7 24.1 0.00 0.00 0.00 30 1011.7
20260903235003 31 283 11.3 25.7 0.00 0.00 0.00 31 1011.7
20260903234903 31 283 11.3 25.7 0.00 0.00 0.00 31 1011.7
20260903234803 31 283 11.3 25.7 0.00 0.00 0.00 31 1011.7
20260903234703 31 285 11.3 25.7 0.00 0.00 0.00 31 1011.7
20260903234603 31 286 11.3 25.7 0.00 0.00 0.00 31 1011.7
20260903234503 31 288 11.3 25.7 0.00 0.00 0.00 31 1011.7
20260903234403 31 292 11.3 29.0 0.00 0.00 0.00 31 1011.6
20260903234303 31 292 11.3 29.0 0.00 0.00 0.00 32 1011.7
20260903234204 31 290 11.3 29.0 0.00 0.00 0.00 32 1011.6
20260903234124 31 287 9.7 29.0 0.00 0.00 0.00 32 1011.6
20260903234003 31 282 9.7 29.0 0.00 0.00 0.00 32 1011.6
20260903233903 31 283 9.7 29.0 0.00 0.00 0.00 32 1011.7
20260903233803 31 284 9.7 29.0 0.00 0.00 0.00 32 1011.6
20260903233703 31 285 9.7 29.0 0.00 0.00 0.00 32 1011.6
20260903233603 32 285 9.7 29.0 0.00 0.00 0.00 32 1011.6
20260903233503 32 287 9.7 29.0 0.00 0.00 0.00 31 1011.6
20260903233403 32 283 8.0 24.1 0.00 0.00 0.00 32 1011.7
20260903233305 32 283 8.0 32.2 0.00 0.00 0.00 31 1011.6
20260903233224 32 282 8.0 32.2 0.00 0.00 0.00 31 1011.6
20260903233124 32 284 9.7 32.2 0.00 0.00 0.00 31 1011.6
20260903233003 32 289 9.7 32.2 0.00 0.00 0.00 31 1011.6
20260903232903 32 289 9.7 32.2 0.00 0.00 0.00 32 1011.6
20260903232803 32 289 9.7 32.2 0.00 0.00 0.00 31 1011.5
20260903232703 32 289 11.3 32.2 0.00 0.00 0.00 31 1011.5
20260903232603 32 292 11.3 32.2 0.00 0.00 0.00 31 1011.5
20260903232503 32 291 11.3 32.2 0.00 0.00 0.00 31 1011.5
20260903232403 32 295 11.3 32.2 0.00 0.00 0.00 31 1011.5
20260903232306 32 298 12.9 33.8 0.00 0.00 0.00 31 1011.5
20260903232203 32 301 12.9 33.8 0.00 0.00 0.00 31 1011.5
20260903232103 32 300 12.9 33.8 0.00 0.00 0.00 31 1011.4
20260903232003 32 299 12.9 33.8 0.00 0.00 0.00 31 1011.5
20260903231903 32 297 12.9 33.8 0.00 0.00 0.00 31 1011.5
20260903231803 32 296 11.3 33.8 0.00 0.00 0.00 31 1011.5
20260903231703 32 295 11.3 33.8 0.00 0.00 0.00 31 1011.5
20260903231603 32 292 11.3 33.8 0.00 0.00 0.00 31 1011.5
20260903231503 32 291 11.3 33.8 0.00 0.00 0.00 31 1011.5
20260903231403 32 287 11.3 33.8 0.00 0.00 0.00 31 1011.4
20260903231303 32 280 9.7 20.9 0.00 0.00 0.00 30 1011.4
20260903231203 32 276 11.3 20.9 0.00 0.00 0.00 30 1011.5
20260903231103 32 276 11.3 20.9 0.00 0.00 0.00 30 1011.5
20260903231003 32 275 11.3 20.9 0.00 0.00 0.00 30 1011.5
20260903230903 32 277 11.3 20.9 0.00 0.00 0.00 30 1011.5
20260903230805 32 276 11.3 29.0 0.00 0.00 0.00 30 1011.5
20260903230703 32 276 11.3 29.0 0.00 0.00 0.00 30 1011.5
20260903230603 32 275 11.3 29.0 0.00 0.00 0.00 30 1011.5
20260903230503 32 273 11.3 29.0 0.00 0.00 0.00 30 1011.5
20260903230424 32 275 11.3 29.0 0.00 0.00 0.00 30 1011.5
20260903230303 32 280 12.9 30.6 0.00 0.00 0.00 30 1011.5
20260903230203 32 279 11.3 30.6 0.00 0.00 0.00 30 1011.5
20260903230103 32 280 11.3 30.6 0.00 0.00 0.00 30 1011.5
20260903230003 32 279 12.9 30.6 0.00 0.00 0.00 30 1011.6
20260903225903 32 280 12.9 30.6 0.00 0.00 0.00 30 1011.6
20260903225803 32 281 12.9 30.6 0.00 0.00 0.00 29 1011.6
20260903225703 32 279 12.9 30.6 0.00 0.00 0.00 30 1011.6
20260903225603 32 280 12.9 30.6 0.00 0.00 0.00 29 1011.6
20260903225503 32 284 12.9 30.6 0.00 0.00 0.00 29 1011.6
20260903225403 32 285 12.9 25.7 0.00 0.00 0.00 30 1011.5
20260903225306 32 283 12.9 25.7 0.00 0.00 0.00 29 1011.4
20260903225203 32 284 12.9 25.7 0.00 0.00 0.00 30 1011.4
20260903225103 32 285 12.9 25.7 0.00 0.00 0.00 30 1011.4
20260903225003 32 285 12.9 25.7 0.00 0.00 0.00 30 1011.4
20260903224903 32 288 12.9 27.4 0.00 0.00 0.00 30 1011.4
20260903224803 32 288 12.9 27.4 0.00 0.00 0.00 30 1011.4
20260903224703 32 288 12.9 27.4 0.00 0.00 0.00 30 1011.4
20260903224603 32 289 12.9 27.4 0.00 0.00 0.00 30 1011.4
20260903224524 32 286 12.9 27.4 0.00 0.00 0.00 30 1011.3
20260903224403 32 285 12.9 27.4 0.00 0.00 0.00 31 1011.4
20260903224303 32 284 12.9 27.4 0.00 0.00 0.00 31 1011.3
20260903224203 32 283 11.3 27.4 0.00 0.00 0.00 31 1011.4
20260903224103 32 279 11.3 27.4 0.00 0.00 0.00 31 1011.3
20260903224003 32 277 11.3 27.4 0.00 0.00 0.00 31 1011.4
20260903223903 33 272 11.3 27.4 0.00 0.00 0.00 31 1011.4
20260903223803 33 272 11.3 27.4 0.00 0.00 0.00 31 1011.2
20260903223703 33 271 11.3 27.4 0.00 0.00 0.00 31 1011.3
20260903223603 33 270 11.3 27.4 0.00 0.00 0.00 30 1011.3
20260903223503 33 273 12.9 27.4 0.00 0.00 0.00 30 1011.3
20260903223403 33 275 12.9 27.4 0.00 0.00 0.00 30 1011.3
20260903223303 32 276 12.9 27.4 0.00 0.00 0.00 30 1011.3
20260903223203 32 276 12.9 33.8 0.00 0.00 0.00 29 1011.3
20260903223103 32 279 12.9 33.8 0.00 0.00 0.00 29 1011.3
20260903223003 32 279 12.9 33.8 0.00 0.00 0.00 29 1011.3
20260903222903 32 279 12.9 33.8 0.00 0.00 0.00 29 1011.4
20260903222803 33 282 12.9 33.8 0.00 0.00 0.00 28 1011.3
20260903222704 33 283 12.9 33.8 0.00 0.00 0.00 28 1011.3
20260903222603 33 283 12.9 33.8 0.00 0.00 0.00 28 1011.2
20260903222503 33 280 12.9 33.8 0.00 0.00 0.00 27 1011.3
20260903222403 33 278 12.9 33.8 0.00 0.00 0.00 27 1011.2
20260903222305 33 277 12.9 33.8 0.00 0.00 0.00 27 1011.2
20260903222203 33 276 12.9 25.7 0.00 0.00 0.00 27 1011.2
20260903222124 33 275 12.9 25.7 0.00 0.00 0.00 27 1011.2
20260903222024 33 277 12.9 25.7 0.00 0.00 0.00 28 1011.2
20260903221903 33 280 12.9 25.7 0.00 0.00 0.00 29 1011.1
20260903221803 33 278 11.3 25.7 0.00 0.00 0.00 30 1011.1
20260903221703 33 277 11.3 24.1 0.00 0.00 0.00 30 1011.1
20260903221603 33 274 11.3 24.1 0.00 0.00 0.00 31 1011.1
20260903221503 33 276 11.3 24.1 0.00 0.00 0.00 31 1011.0
20260903221424 33 274 9.7 22.5 0.00 0.00 0.00 31 1011.0
20260903221303 33 274 9.7 20.9 0.00 0.00 0.00 32 1011.0
20260903221224 33 274 9.7 20.9 0.00 0.00 0.00 32 1010.9
20260903221103 33 272 9.7 20.9 0.00 0.00 0.00 32 1011.0
20260903221003 33 272 9.7 20.9 0.00 0.00 0.00 33 1011.0
20260903220903 33 270 9.7 20.9 0.00 0.00 0.00 33 1010.9
20260903220803 33 270 11.3 20.9 0.00 0.00 0.00 33 1010.9
20260903220703 33 270 11.3 20.9 0.00 0.00 0.00 33 1011.0
20260903220603 33 273 11.3 27.4 0.00 0.00 0.00 33 1011.0
20260903220503 33 273 11.3 27.4 0.00 0.00 0.00 33 1011.0
20260903220424 33 273 11.3 27.4 0.00 0.00 0.00 33 1011.0
20260903220324 33 275 11.3 27.4 0.00 0.00 0.00 33 1011.0
20260903220203 33 274 11.3 27.4 0.00 0.00 0.00 34 1011.0
20260903220124 33 274 11.3 27.4 0.00 0.00 0.00 34 1011.0
20260903220024 33 275 11.3 27.4 0.00 0.00 0.00 34 1011.0
20260903215903 33 277 11.3 27.4 0.00 0.00 0.00 35 1011.1
20260903215803 33 279 11.3 27.4 0.00 0.00 0.00 35 1011.0
20260903215703 33 278 11.3 27.4 0.00 0.00 0.00 35 1011.1
20260903215624 33 278 11.3 25.7 0.00 0.00 0.00 35 1011.0
20260903215503 33 273 11.3 24.1 0.00 0.00 0.00 35 1011.1
20260903215403 33 271 11.3 24.1 0.00 0.00 0.00 36 1011.1
20260903215306 33 272 11.3 24.1 0.00 0.00 0.00 36 1011.0
20260903215203 33 275 11.3 24.1 0.00 0.00 0.00 36 1011.0
20260903215103 33 275 11.3 24.1 0.00 0.00 0.00 36 1011.0
20260903215003 33 273 9.7 24.1 0.00 0.00 0.00 36 1011.0
20260903214903 33 274 11.3 24.1 0.00 0.00 0.00 37 1011.0
20260903214803 33 273 11.3 24.1 0.00 0.00 0.00 37 1011.0
20260903214724 33 275 11.3 24.1 0.00 0.00 0.00 37 1011.0
20260903214605 34 274 11.3 24.1 0.00 0.00 0.00 37 1011.0
20260903214503 34 274 11.3 22.5 0.00 0.00 0.00 37 1011.0
20260903214403 34 276 11.3 22.5 0.00 0.00 0.00 37 1011.0
20260903214303 34 270 11.3 22.5 0.00 0.00 0.00 37 1011.0
20260903214203 34 264 11.3 24.1 0.00 0.00 0.00 37 1011.0
20260903214103 34 265 12.9 24.1 0.00 0.00 0.00 37 1011.0
20260903214003 34 264 12.9 24.1 0.00 0.00 0.00 37 1011.0
20260903213903 34 260 11.3 24.1 0.00 0.00 0.00 38 1011.0
20260903213824 34 260 11.3 24.1 0.00 0.00 0.00 38 1011.0
20260903213703 34 261 11.3 24.1 0.00 0.00 0.00 38 1011.0
20260903213603 34 261 11.3 24.1 0.00 0.00 0.00 38 1011.0
20260903213503 34 263 11.3 24.1 0.00 0.00 0.00 38 1011.1
20260903213403 34 265 11.3 24.1 0.00 0.00 0.00 38 1011.0
20260903213303 34 268 11.3 24.1 0.00 0.00 0.00 38 1011.0
20260903213203 34 269 11.3 24.1 0.00 0.00 0.00 38 1011.1
20260903213103 34 269 9.7 24.1 0.00 0.00 0.00 38 1011.1
20260903213003 34 270 11.3 22.5 0.00 0.00 0.00 38 1011.1
20260903212903 34 267 11.3 22.5 0.00 0.00 0.00 38 1011.1
20260903212803 34 264 9.7 22.5 0.00 0.00 0.00 38 1011.1
20260903212703 34 260 9.7 22.5 0.00 0.00 0.00 38 1011.1
20260903212603 34 259 9.7 22.5 0.00 0.00 0.00 38 1011.1
20260903212524 34 260 9.7 22.5 0.00 0.00 0.00 38 1011.2
20260903212403 34 256 9.7 22.5 0.00 0.00 0.00 38 1011.2
20260903212306 34 256 9.7 22.5 0.00 0.00 0.00 38 1011.1
20260903212203 34 259 9.7 22.5 0.00 0.00 0.00 38 1011.2
20260903212103 34 261 9.7 22.5 0.00 0.00 0.00 38 1011.3
20260903212003 35 261 8.0 22.5 0.00 0.00 0.00 38 1011.3
20260903211903 34 265 9.7 22.5 0.00 0.00 0.00 38 1011.3
20260903211803 34 267 9.7 22.5 0.00 0.00 0.00 38 1011.2
20260903211724 34 267 9.7 22.5 0.00 0.00 0.00 38 1011.2
20260903211603 34 268 11.3 22.5 0.00 0.00 0.00 38 1011.2
20260903211503 34 267 9.7 22.5 0.00 0.00 0.00 38 1011.2
20260903211404 34 267 11.3 22.5 0.00 0.00 0.00 38 1011.2
20260903211303 34 266 11.3 22.5 0.00 0.00 0.00 38 1011.2
20260903211203 34 264 11.3 22.5 0.00 0.00 0.00 38 1011.3
20260903211103 34 262 9.7 22.5 0.00 0.00 0.00 38 1011.3
20260903211003 34 261 11.3 22.5 0.00 0.00 0.00 38 1011.2
20260903210903 35 260 9.7 22.5 0.00 0.00 0.00 38 1011.3
20260903210803 35 258 9.7 24.1 0.00 0.00 0.00 38 1011.3
20260903210703 35 256 11.3 24.1 0.00 0.00 0.00 38 1011.3
20260903210603 35 256 9.7 24.1 0.00 0.00 0.00 38 1011.3
20260903210503 35 257 9.7 24.1 0.00 0.00 0.00 38 1011.3
20260903210403 35 257 9.7 24.1 0.00 0.00 0.00 38 1011.3
20260903210303 35 257 9.7 24.1 0.00 0.00 0.00 38 1011.3
20260903210203 35 256 9.7 24.1 0.00 0.00 0.00 38 1011.3
20260903210103 35 259 9.7 24.1 0.00 0.00 0.00 38 1011.4
20260903210003 35 259 9.7 24.1 0.00 0.00 0.00 38 1011.3
20260903205924 35 261 9.7 24.1 0.00 0.00 0.00 38 1011.3
20260903205803 35 262 8.0 20.9 0.00 0.00 0.00 37 1011.3
20260903205703 35 263 8.0 20.9 0.00 0.00 0.00 37 1011.4
20260903205603 35 265 8.0 20.9 0.00 0.00 0.00 38 1011.3
20260903205503 35 265 8.0 20.9 0.00 0.00 0.00 37 1011.3
20260903205403 35 268 8.0 20.9 0.00 0.00 0.00 37 1011.3
20260903205324 35 270 9.7 20.9 0.00 0.00 0.00 38 1011.4
20260903205224 35 271 8.0 20.9 0.00 0.00 0.00 37 1011.4
20260903205103 35 269 8.0 19.3 0.00 0.00 0.00 38 1011.3
20260903205003 35 269 8.0 19.3 0.00 0.00 0.00 38 1011.3
20260903204903 35 268 8.0 19.3 0.00 0.00 0.00 38 1011.4
20260903204803 35 268 8.0 19.3 0.00 0.00 0.00 37 1011.4
20260903204703 35 267 8.0 19.3 0.00 0.00 0.00 37 1011.4
20260903204603 35 267 8.0 19.3 0.00 0.00 0.00 37 1011.5
20260903204503 35 265 8.0 19.3 0.00 0.00 0.00 37 1011.5
20260903204403 35 260 8.0 17.7 0.00 0.00 0.00 37 1011.5
20260903204303 35 255 8.0 17.7 0.00 0.00 0.00 37 1011.6